GEFSCGP_850_meantemp_000.txt.gz
Temperature
21 20 20 21 22 22 22 22 22 23 25 24 23 22 22 24 25 24 22 23 23 23 22 22 22 21 21 20 20 20 20 19 19 18 19 19 18 17 17 17 17 17 17 17
19 19 22 22 24 23 23 22 22 23 24 24 24 24 23 23 24 23 22 22 23 22 22 22 22 20 20 20 19 19 19 19 19 19 19 18 18 18 17 17 17 17 17 17
18 20 23 24 24 23 23 22 22 22 23 24 24 22 22 23 22 22 23 24 24 23 21 21 21 20 19 18 18 18 19 19 19 18 18 18 17 17 17 17 17 17 17 17
19 22 22 22 23 23 22 24 24 24 22 21 22 19 21 22 22 21 21 22 22 22 21 20 20 20 19 18 17 17 18 18 18 17 17 17 17 16 16 16 17 17 17 17
20 21 21 22 23 24 22 24 24 24 22 21 21 20 21 21 20 21 21 22 22 22 22 21 20 19 19 18 17 16 16 17 16 16 16 16 16 15 16 16 15 15 16 17
20 22 23 23 24 24 24 23 21 19 19 19 20 21 20 20 20 21 21 22 23 22 22 21 19 19 18 18 17 16 16 16 16 15 15 15 15 15 15 16 14 15 15 16
21 22 23 24 23 24 22 21 19 19 19 19 20 20 20 22 21 21 21 22 22 22 21 21 20 19 19 18 18 17 16 16 15 15 15 15 15 15 15 16 14 14 14 15
19 18 22 23 23 21 22 20 18 18 18 19 21 19 21 22 23 23 23 23 23 22 22 22 21 20 19 18 18 17 16 16 16 15 15 15 15 16 16 15 14 14 14 15
19 20 23 24 23 23 20 20 21 19 19 18 20 21 22 21 21 22 22 22 22 22 22 22 21 20 19 18 18 17 17 17 16 15 15 15 16 16 15 15 14 14 15 15
20 18 22 23 24 23 21 22 16 19 18 17 19 20 19 20 21 21 20 21 23 23 22 21 21 20 19 18 18 17 17 17 16 16 16 15 16 16 15 16 16 16 16 16
18 19 19 22 22 21 21 21 20 19 18 18 18 19 19 20 21 20 21 23 23 23 23 22 21 20 19 18 17 17 17 16 16 16 16 16 15 16 16 16 17 17 17 17
14 14 17 19 20 20 19 18 17 16 17 16 16 17 20 19 20 20 21 23 23 23 23 22 21 20 18 18 17 16 16 16 16 16 16 16 16 15 16 16 16 16 15 16
16 14 16 18 19 19 18 17 16 15 15 15 16 17 19 19 21 22 23 24 23 23 23 22 21 20 19 18 17 17 16 16 16 16 16 16 16 16 16 16 15 15 16 16
17 15 15 17 18 18 17 18 18 16 15 16 16 18 19 20 20 20 22 23 23 23 23 22 21 20 19 19 19 18 17 17 17 16 16 16 16 16 16 17 17 16 17 16
15 16 15 16 17 18 18 19 18 17 17 16 18 18 19 20 19 21 22 22 22 22 22 22 21 21 20 19 19 19 18 17 17 16 15 16 16 16 16 16 16 15 15 15
14 15 15 17 17 17 17 18 18 18 18 17 18 18 20 20 20 20 22 22 22 22 22 22 22 21 21 20 20 19 18 18 17 17 16 16 15 15 15 15 15 15 14 14
15 15 14 14 16 16 15 18 18 18 19 19 18 19 19 19 20 21 22 23 23 22 22 21 21 20 20 20 20 19 19 18 17 18 18 17 16 15 15 15 15 15 14 14
14 14 14 13 14 13 17 17 18 18 19 19 19 19 19 19 22 22 23 24 23 22 22 21 20 20 19 19 19 18 18 18 18 18 17 17 16 16 15 15 15 14 14 14
14 13 13 12 14 15 17 18 18 18 19 20 19 20 20 21 20 20 22 23 22 21 21 20 19 19 18 18 18 19 19 18 18 18 17 17 16 16 16 16 15 15 15 14
12 12 13 12 13 14 17 18 19 20 19 20 20 19 20 20 18 18 21 21 21 20 19 19 18 17 16 16 16 17 17 17 17 17 17 17 16 16 16 15 15 14 14 14
13 13 13 13 12 13 16 17 18 18 19 22 22 22 22 20 20 21 20 20 19 19 18 18 17 16 16 15 15 15 15 15 15 15 16 16 16 15 14 14 13 13 13 13
13 13 14 13 13 14 17 17 17 18 21 23 23 23 22 22 21 20 19 19 18 18 17 16 16 16 15 15 15 14 14 13 13 13 14 14 14 13 12 13 12 12 12 13
12 13 13 13 14 16 17 17 18 18 20 22 22 22 22 21 20 19 18 18 18 17 16 15 15 15 14 14 14 14 13 13 12 12 12 12 12 12 12 12 12 12 12 12
13 13 13 13 15 15 16 18 19 20 21 22 22 22 21 20 19 19 18 17 17 16 15 15 14 14 14 14 14 13 13 13 12 12 11 11 11 11 11 12 12 12 12 12
12 12 12 13 14 15 18 17 18 19 21 23 22 22 22 21 19 18 18 17 16 16 15 15 15 14 14 14 14 13 13 12 12 11 11 11 11 11 11 11 12 12 12 12
12 12 12 12 13 13 14 16 15 18 20 22 22 22 21 21 20 18 18 17 16 16 16 15 15 14 14 14 14 13 12 12 12 11 11 11 10 10 11 11 11 11 11 11

GEFSCGP_850_meantemp_006.txt.gz
Temperature
20 18 18 18 18 20 21 21 20 21 23 23 22 22 22 23 22 22 22 21 21 22 22 22 22 23 23 22 21 20 20 20 19 19 19 18 18 18 17 17 17 17 17 17
19 18 19 20 20 20 21 20 20 21 22 22 21 21 21 21 21 22 22 21 20 21 22 22 23 22 22 21 20 19 19 19 19 19 19 18 18 17 17 17 17 17 17 17
19 20 21 21 21 21 21 20 20 20 21 22 21 20 20 21 22 22 21 21 20 21 22 22 22 21 21 21 20 19 19 18 18 18 18 18 17 17 17 17 17 17 17 17
18 19 20 21 21 21 20 22 21 21 20 19 20 18 19 19 19 19 19 18 20 21 22 22 21 21 21 20 20 19 18 18 18 18 17 17 17 17 17 17 17 17 17 17
18 19 20 20 21 22 21 21 20 20 20 18 19 18 18 19 20 19 18 18 20 21 21 21 21 20 20 20 19 19 18 17 17 17 17 17 16 16 16 16 16 16 16 16
19 20 20 20 21 21 21 21 19 17 17 18 19 18 18 18 19 20 19 19 20 21 21 21 21 20 20 20 19 19 18 17 17 17 16 16 16 16 15 15 15 15 15 16
18 19 20 21 21 21 21 19 17 17 16 17 18 18 18 20 19 19 19 20 21 22 22 21 21 21 21 20 19 19 18 17 17 16 16 16 15 15 15 15 15 15 15 15
17 17 19 20 20 19 19 18 17 17 17 16 18 17 18 20 20 21 21 22 22 22 22 22 22 22 21 20 19 18 18 17 16 16 15 15 15 15 15 15 15 15 15 15
17 17 19 20 21 20 19 18 18 17 17 17 17 17 19 20 21 21 21 21 22 22 23 23 22 22 21 20 19 18 17 17 16 16 15 15 15 15 15 15 15 14 14 14
16 16 17 18 21 20 19 18 15 16 16 16 17 17 18 20 20 21 20 21 22 23 23 23 23 22 21 20 19 18 17 17 17 16 15 15 15 15 15 15 15 14 14 14
15 15 16 17 17 17 18 18 16 14 15 15 16 17 18 19 19 19 19 21 22 23 23 23 23 22 21 20 19 18 17 17 17 16 16 15 15 15 15 15 15 15 15 15
14 13 14 15 16 17 16 16 15 16 15 14 14 16 18 18 18 18 20 21 22 22 22 22 22 22 21 20 19 18 17 17 17 16 16 15 15 15 15 15 15 15 15 15
15 14 15 15 16 16 16 16 15 14 14 13 13 16 18 18 19 20 20 21 22 22 23 22 22 22 21 21 20 19 18 17 17 16 16 16 15 15 15 15 15 14 14 15
15 14 15 15 16 16 16 17 15 14 13 13 13 15 17 18 18 19 20 21 22 22 23 23 22 22 22 21 20 19 18 18 17 16 16 16 16 15 15 15 15 14 14 14
14 14 14 14 16 16 16 16 16 14 14 14 15 15 17 18 18 19 21 21 21 22 22 23 23 22 22 21 20 19 19 18 17 17 17 17 16 16 15 15 15 14 14 14
13 14 14 14 15 15 15 16 16 16 15 15 15 16 17 18 19 19 20 21 21 22 22 22 22 22 22 21 21 20 19 18 18 17 17 17 16 16 16 16 15 15 15 15
13 13 13 13 13 14 14 15 15 15 15 15 15 17 17 16 16 18 20 21 21 22 22 21 21 22 22 21 20 20 19 18 18 18 17 17 16 16 16 16 15 15 15 15
12 12 12 12 13 13 15 16 16 15 16 16 16 16 16 16 18 20 20 20 21 22 22 22 21 21 21 20 19 19 18 18 18 17 17 17 17 16 16 16 15 15 15 15
11 12 12 12 13 14 15 16 16 15 15 16 15 15 16 18 18 19 20 21 21 21 21 21 20 20 20 19 18 18 18 18 17 17 17 17 17 16 16 16 15 15 15 15
11 11 12 12 13 14 15 16 16 15 15 16 15 15 16 17 16 17 19 20 21 20 20 19 19 19 18 17 17 17 16 16 16 16 16 16 16 16 16 16 15 15 15 14
12 12 12 12 13 14 15 15 16 14 14 14 14 14 15 16 17 18 18 19 19 18 18 18 18 17 17 16 15 15 15 14 14 14 14 15 15 15 16 15 15 15 14 14
11 12 12 12 12 13 14 15 14 13 14 13 14 14 16 18 17 17 17 17 17 17 17 17 16 16 15 14 14 14 13 13 13 13 13 13 13 14 14 14 14 14 14 13
10 10 10 11 12 13 13 14 14 13 13 13 13 14 16 17 17 16 16 16 17 17 16 16 15 15 14 13 13 13 12 12 12 12 12 12 12 12 12 13 13 13 13 13
10 10 10 11 12 12 13 14 14 13 13 13 13 14 16 16 17 16 16 17 17 16 16 15 14 14 13 13 13 12 12 12 11 11 11 11 11 11 11 10 11 11 12 12
9 10 10 10 11 13 13 13 13 13 13 13 14 15 16 17 18 17 17 17 17 16 15 15 14 14 13 13 13 13 12 12 11 11 11 11 11 11 10 10 11 11 11 12
8 9 9 9 11 11 11 12 12 12 12 13 14 15 17 18 18 18 17 17 17 16 16 15 14 14 14 13 13 13 12 12 11 11 11 10 10 10 11 11 11 11 11 11

GEFSCGP_850_meantemp_012.txt.gz
Temperature
22 23 22 23 23 23 23 24 25 26 27 26 26 27 28 28 27 27 27 27 27 27 25 23 23 23 22 22 21 20 20 19 18 18 18 18 18 18 18 17 17 17 17 16
23 23 23 22 22 22 22 23 24 25 26 26 26 27 28 28 28 27 28 28 27 26 24 22 22 22 22 22 21 20 20 19 18 18 18 18 18 18 18 17 17 17 17 16
22 23 23 22 22 22 23 23 23 23 24 25 25 26 27 28 28 27 25 25 26 25 24 23 22 21 21 21 21 21 20 19 18 18 18 18 18 18 18 18 17 17 17 17
22 23 22 22 22 22 22 23 22 22 23 24 25 24 27 28 28 27 26 25 24 23 23 22 21 21 20 20 20 20 19 18 18 18 18 18 18 17 17 17 17 17 17 17
23 23 23 23 23 23 22 21 20 21 21 23 25 25 26 27 27 27 27 25 24 22 22 22 21 21 20 20 20 19 19 18 18 17 17 17 17 17 17 17 16 16 16 16
23 24 23 23 24 23 22 21 20 20 21 22 25 25 25 27 26 26 26 24 23 22 22 22 21 21 20 20 20 19 19 18 18 18 17 16 16 16 16 16 16 16 16 16
23 24 23 23 23 23 23 22 20 20 20 22 24 24 25 27 26 25 25 24 23 22 22 22 21 20 20 20 19 19 18 18 17 17 16 16 16 16 16 15 15 15 15 15
22 23 24 23 23 23 23 23 22 21 22 23 23 24 26 26 25 24 24 24 23 23 22 22 21 20 20 19 19 18 18 17 17 17 16 16 16 16 15 15 15 15 15 15
22 23 24 23 23 23 23 23 24 23 23 22 24 25 26 26 25 25 24 24 23 23 23 22 21 20 20 19 19 19 18 17 17 16 16 16 16 16 15 15 15 15 15 15
21 21 23 23 23 23 23 24 23 23 22 22 23 24 25 26 25 25 25 25 24 24 23 23 21 21 20 20 19 19 18 17 17 17 16 16 16 15 15 15 15 15 15 14
21 21 22 23 22 22 22 22 23 23 23 21 22 23 25 25 25 25 25 24 23 23 23 23 22 21 20 20 20 19 19 18 17 17 16 16 16 16 15 15 15 15 15 14
20 19 20 22 22 20 21 21 22 20 21 21 21 23 25 24 24 24 24 24 23 22 22 22 21 21 21 21 20 20 19 18 18 17 17 16 16 16 16 15 15 15 15 14
19 18 18 20 20 20 20 20 20 20 20 20 20 22 25 24 24 24 23 23 23 23 22 22 21 21 21 21 20 20 19 19 18 18 17 16 16 16 16 15 15 15 15 14
18 17 17 17 18 18 19 20 20 19 18 19 21 22 23 23 23 23 22 22 22 22 22 22 21 21 21 21 20 20 20 19 18 18 17 17 16 16 16 15 15 15 15 14
18 18 18 18 18 18 19 19 20 20 20 19 20 20 21 21 21 20 20 21 21 21 22 22 21 21 20 20 20 20 20 19 18 18 17 17 16 16 16 15 15 15 15 14
18 17 17 18 18 18 19 20 20 20 19 19 19 19 20 19 18 19 20 20 21 21 21 21 21 20 20 19 19 19 19 19 18 18 17 16 16 16 16 16 15 15 15 14
17 17 16 17 18 18 18 18 18 18 18 18 17 17 17 17 18 19 19 20 20 21 20 20 20 20 19 19 18 18 18 18 18 17 17 16 16 16 16 16 16 16 15 15
15 16 16 16 17 16 17 18 17 18 17 17 17 17 17 17 19 19 17 18 19 19 19 18 18 18 18 18 18 19 19 18 17 17 16 16 16 16 16 16 16 16 15 15
15 14 15 16 16 17 17 15 14 16 17 16 16 16 16 16 21 20 16 15 16 16 17 17 17 17 18 18 18 18 18 17 17 16 16 16 16 16 16 16 16 16 15 15
15 14 13 13 13 14 11 11 13 17 16 15 15 16 15 16 19 19 15 14 15 15 16 16 17 17 18 17 17 17 16 15 15 15 15 15 15 15 15 15 15 15 15 15
14 14 12 10 11 11 8 8 13 13 11 13 14 14 15 15 16 15 14 14 14 15 15 15 16 17 16 16 15 15 14 13 13 13 13 13 14 14 14 14 14 14 15 15
13 12 11 10 9 8 8 8 9 9 10 12 13 14 14 14 14 15 14 14 14 14 14 14 15 16 15 14 14 13 12 12 12 12 12 12 12 12 13 13 13 13 13 13
13 12 11 11 10 9 8 8 8 9 10 11 12 13 14 14 15 15 15 14 14 14 14 14 14 14 13 13 13 13 12 12 12 11 11 11 11 11 11 11 11 12 12 12
13 13 12 12 11 10 9 8 8 9 9 11 12 13 14 14 14 15 15 15 15 15 14 14 13 13 13 13 13 13 12 12 12 11 11 11 11 10 10 10 10 10 11 11
12 11 11 11 11 10 10 9 8 9 9 10 12 13 13 14 14 15 15 15 15 15 14 14 13 13 13 13 13 13 13 12 12 11 11 11 10 10 10 10 10 10 10 11
10 9 8 9 9 9 9 9 9 9 9 10 11 12 13 14 14 14 15 15 15 15 14 14 14 13 13 13 13 13 13 12 12 12 11 11 10 10 10 10 11 11 11 11

GEFSCGP_850_meantemp_018.txt.gz
Temperature
25 25 24 24 24 24 24 24 24 25 24 24 24 25 27 29 29 29 29 29 29 29 28 28 27 26 26 25 25 24 23 22 22 21 20 20 20 19 19 18 18 18 18 18
25 24 25 25 24 24 24 23 23 24 24 24 24 24 26 28 29 29 29 29 29 29 28 27 26 25 25 24 23 23 23 22 21 21 20 20 19 19 19 18 18 18 18 18
24 25 25 25 24 24 23 22 22 21 22 23 22 23 25 28 29 29 29 29 29 29 28 26 25 24 24 23 22 22 22 22 21 20 19 19 18 18 18 18 18 18 18 18
26 26 26 25 25 24 23 23 22 21 21 21 21 20 23 26 28 28 29 29 29 29 28 26 25 23 23 22 22 21 21 21 20 19 19 18 18 18 18 18 18 18 18 17
26 27 26 25 26 25 24 24 22 21 20 20 21 20 23 25 26 28 29 29 29 28 27 25 24 23 23 22 21 21 21 20 20 19 18 18 18 18 18 18 18 18 17 17
27 28 27 26 26 26 25 24 22 22 21 20 22 21 21 23 24 26 28 28 28 27 26 25 24 23 22 21 21 21 20 20 20 19 18 18 18 18 18 18 17 17 17 17
26 27 28 27 25 26 25 23 21 20 19 20 22 21 21 23 25 26 27 27 27 26 25 24 23 22 21 21 21 21 21 21 20 19 18 19 18 18 18 18 17 17 17 16
24 25 26 26 25 25 25 24 21 19 20 20 21 21 23 25 25 26 27 26 26 25 24 23 22 22 21 21 21 21 20 20 19 19 19 19 19 18 18 17 17 16 16 16
22 23 25 26 26 25 24 24 24 22 21 20 21 22 24 24 25 26 26 26 25 25 24 23 22 21 21 21 21 20 20 19 19 19 19 19 19 18 17 17 16 16 16 15
23 21 23 24 25 25 25 25 23 21 19 20 22 21 18 19 20 22 24 25 24 24 24 23 23 22 21 21 21 20 20 19 19 19 19 19 18 18 17 17 16 16 16 15
22 20 21 22 22 22 21 21 21 21 20 19 19 18 18 16 16 17 20 21 22 21 21 22 22 22 22 22 21 20 20 19 19 19 18 18 18 17 17 16 16 16 15 15
21 20 19 20 21 19 18 17 18 17 18 18 18 18 18 17 16 17 18 20 22 22 23 23 22 22 22 22 21 20 20 19 19 19 18 18 18 17 17 16 16 16 15 15
20 18 17 18 19 17 15 15 16 19 19 18 18 18 18 17 17 17 18 19 21 22 23 23 23 23 23 22 22 21 20 20 19 19 18 18 18 17 17 17 16 16 16 15
19 18 17 16 16 16 15 14 16 19 18 18 19 18 17 17 17 18 19 20 21 21 22 23 23 23 23 22 22 21 21 20 20 19 19 18 18 18 17 17 16 16 16 16
20 18 18 18 18 17 16 16 18 19 20 19 18 17 17 18 18 19 20 20 21 21 22 22 23 23 22 22 21 21 21 20 19 19 18 18 18 18 17 17 16 16 16 16
19 18 18 18 19 18 16 15 17 18 18 17 16 16 17 18 18 18 19 20 20 21 21 22 22 22 22 21 21 21 20 20 19 19 18 18 18 17 17 17 16 16 16 16
18 17 16 16 18 18 13 10 12 14 14 15 14 15 16 17 17 17 18 18 19 20 20 21 21 21 21 21 20 20 20 19 19 19 18 18 17 17 17 16 16 16 15 15
18 17 15 15 16 14 9 10 10 11 12 12 13 14 15 15 16 17 17 17 17 18 18 19 19 19 19 19 19 19 19 18 18 18 18 17 17 16 16 15 15 15 15 15
19 17 15 14 14 12 10 10 9 9 11 11 11 13 14 15 16 17 17 16 16 17 17 17 18 18 18 18 18 18 17 17 17 17 16 16 16 15 15 15 15 15 15 15
18 17 16 14 13 11 10 11 10 11 11 10 10 12 13 14 15 16 16 17 16 16 16 16 17 17 17 16 17 16 16 15 15 14 14 14 14 14 14 14 14 14 14 14
16 16 15 14 13 11 11 11 11 10 9 9 10 11 12 13 14 16 17 17 16 16 16 16 15 15 15 15 15 15 14 13 13 13 13 13 13 13 13 13 13 13 13 13
15 14 14 13 12 11 12 11 10 9 9 9 10 11 12 13 14 16 17 17 17 16 15 15 15 15 15 14 14 14 13 13 12 12 12 12 12 12 12 12 12 12 12 12
15 14 14 13 13 13 12 11 10 9 9 10 10 11 12 13 14 16 16 17 17 16 16 15 15 15 15 14 14 13 13 13 13 12 12 12 12 11 11 11 11 11 11 12
15 15 14 14 14 13 12 11 11 10 10 10 11 11 12 13 14 16 16 17 17 16 16 15 15 15 15 14 14 13 13 13 13 13 12 12 12 11 11 11 11 11 11 11
14 14 14 13 14 13 12 11 11 11 11 11 11 12 12 13 14 16 16 17 17 17 16 15 16 15 15 15 14 14 13 13 14 13 13 12 12 11 11 11 11 11 11 11
15 14 13 13 13 12 12 12 11 11 11 11 11 12 13 13 15 16 16 17 17 17 16 16 15 15 15 15 14 14 13 13 13 13 12 12 12 11 11 11 11 11 11 11

GEFSCGP_850_meantemp_024.txt.gz
Temperature
22 20 19 20 20 20 20 20 20 20 21 21 20 20 20 21 22 22 23 24 25 26 26 26 26 26 25 24 24 23 23 22 22 21 21 20 20 20 20 19 19 19 18 18
20 20 21 22 21 21 21 20 20 20 21 21 20 20 20 21 21 23 23 24 25 26 26 26 26 25 25 25 24 24 23 22 22 21 21 20 20 20 19 19 19 19 19 18
21 21 22 22 22 21 21 20 20 20 20 20 19 18 19 21 21 22 23 24 24 25 25 25 25 25 25 24 24 24 23 22 22 21 20 20 19 19 19 19 18 18 18 18
22 22 23 22 21 21 20 21 20 20 19 17 18 17 18 19 19 20 21 22 23 25 25 25 25 25 24 24 23 23 23 22 21 21 20 20 19 19 19 18 18 18 18 17
21 22 22 21 22 22 21 21 20 19 18 17 17 16 17 17 18 18 19 21 22 24 25 24 24 24 23 23 23 23 22 22 21 21 20 20 19 19 18 18 18 17 17 17
21 22 22 21 22 22 21 19 18 16 15 16 17 16 16 16 16 17 17 18 20 22 23 23 23 22 22 22 22 22 22 22 22 21 21 20 19 19 18 18 18 18 17 17
19 20 21 21 20 20 19 17 16 16 15 15 17 17 16 16 16 16 16 16 17 20 21 21 21 21 22 22 22 21 22 22 22 21 20 19 19 18 18 18 18 18 17 17
17 17 19 20 20 19 18 18 16 16 15 16 17 16 15 16 16 16 15 15 16 17 18 19 20 21 21 22 22 22 21 21 21 20 20 19 19 18 18 18 18 17 17 17
17 17 19 20 19 19 17 16 16 15 15 15 16 16 16 16 15 15 15 15 14 15 16 17 18 19 20 21 21 21 21 21 21 20 20 19 19 18 18 18 17 17 17 16
17 16 17 18 18 17 16 15 13 14 15 15 15 15 14 14 14 14 15 14 14 15 15 16 17 18 19 20 21 21 21 21 20 20 19 19 19 18 18 18 17 17 17 16
16 15 14 15 15 14 14 13 13 13 14 14 14 14 14 13 14 14 14 14 14 15 15 16 17 17 19 20 21 21 21 21 20 19 19 19 18 18 18 18 18 17 17 16
15 13 12 14 15 16 14 13 12 13 13 13 13 13 13 13 14 14 14 14 15 15 16 17 17 18 19 20 20 20 21 21 20 19 19 19 18 18 18 18 18 17 17 16
15 12 11 12 13 14 14 13 13 12 12 12 13 13 13 13 14 14 14 15 15 16 16 17 18 19 19 20 20 20 20 20 20 19 19 18 18 18 18 18 17 17 17 16
15 12 12 12 12 12 12 12 13 12 12 12 12 12 12 13 13 14 14 15 15 15 16 17 18 19 20 20 20 20 20 20 19 19 18 18 18 18 17 17 17 17 16 16
13 13 13 13 13 12 11 11 12 12 12 12 12 12 11 12 13 14 14 14 15 15 16 17 18 19 19 20 20 20 20 19 19 18 18 17 17 17 17 17 17 16 16 16
12 13 12 12 12 12 10 10 11 11 11 12 12 11 12 12 13 13 13 14 13 14 14 16 17 18 19 19 19 19 19 19 18 18 17 17 17 17 17 17 17 16 16 16
11 12 11 11 12 12 10 9 10 10 10 10 10 10 11 12 12 13 13 13 13 14 14 15 16 17 17 18 18 18 18 18 17 17 17 17 17 16 16 16 16 16 16 16
12 11 9 10 11 10 9 10 10 10 10 10 10 10 11 11 12 13 13 13 14 14 14 15 15 16 16 16 16 16 16 16 16 16 15 15 15 15 15 15 15 15 15 15
11 11 9 9 10 10 10 11 10 9 10 9 9 10 10 11 12 13 13 13 14 14 15 15 15 15 15 15 15 15 15 15 15 15 14 14 14 15 15 15 14 14 14 14
11 9 9 9 10 9 9 11 10 10 10 10 9 9 10 10 10 11 13 14 14 15 15 15 15 15 15 14 14 15 14 14 14 13 13 13 13 13 13 13 13 13 13 13
10 9 8 8 9 9 10 10 10 10 9 9 9 9 10 10 10 12 13 14 15 15 15 15 15 14 14 14 14 14 13 13 13 13 12 12 12 12 12 12 12 12 12 12
10 9 9 8 8 9 11 10 9 9 10 10 10 10 10 11 12 13 14 15 15 15 15 15 15 14 14 14 14 13 13 13 12 12 12 12 12 11 11 11 11 11 11 12
10 10 9 9 9 11 11 11 11 10 10 11 11 11 11 12 12 13 14 15 15 15 15 15 15 15 14 14 14 13 13 13 13 12 12 12 11 11 11 11 11 11 11 12
11 11 10 9 10 11 11 11 11 11 11 11 11 11 12 12 13 13 14 15 15 16 16 15 15 15 15 14 14 14 13 13 13 12 12 12 11 11 11 11 11 11 11 11
11 11 10 9 10 11 12 12 12 11 11 12 12 12 12 12 13 13 14 15 15 16 16 16 15 15 15 14 14 14 13 13 13 12 12 12 11 11 11 11 11 11 11 11
11 10 9 9 11 11 12 12 12 12 11 11 11 12 12 12 12 13 14 15 15 16 16 16 16 15 15 15 14 14 13 13 13 12 12 12 11 11 11 11 11 11 11 11

GEFSCGP_850_meantemp_030.txt.gz
Temperature
21 19 19 20 19 20 20 19 19 19 20 20 19 19 18 19 18 18 18 18 19 20 21 22 23 23 23 23 23 23 23 22 22 21 21 20 20 20 19 19 19 18 18 18
19 19 20 20 20 19 19 19 18 19 19 20 18 18 18 17 17 17 16 16 17 18 21 22 22 23 23 23 24 23 23 23 22 22 21 21 20 20 19 19 19 18 18 18
20 20 20 20 19 19 19 18 19 19 19 18 18 18 17 17 16 16 16 15 16 16 18 21 23 23 23 23 24 23 23 23 22 22 21 20 20 20 19 19 19 19 18 18
20 20 20 19 19 19 18 18 18 18 17 16 17 16 16 14 14 15 15 15 15 16 18 20 22 23 23 23 23 23 23 22 22 21 21 20 20 20 19 19 18 18 18 17
19 19 18 18 18 18 18 17 17 17 17 16 16 15 14 13 13 14 15 15 14 15 16 18 20 21 22 22 22 21 21 21 20 20 20 20 19 19 19 18 18 18 17 17
18 18 18 18 18 18 17 16 15 14 14 15 16 15 14 14 14 14 14 14 14 15 16 17 18 19 20 20 20 20 20 19 19 19 19 19 19 19 18 18 18 18 17 17
15 17 17 17 16 16 15 15 14 14 13 14 15 14 14 14 14 14 14 14 14 14 15 16 16 17 17 18 18 19 19 18 18 18 18 18 18 18 18 18 17 17 17 17
14 15 16 16 16 15 14 14 13 14 14 14 15 14 14 14 14 14 14 14 14 14 14 15 15 16 16 16 17 17 17 17 17 17 18 18 18 18 18 17 17 17 17 17
14 14 16 16 15 15 14 13 13 12 13 14 14 14 14 14 13 13 13 13 13 13 14 14 15 15 16 16 16 16 16 17 17 17 18 18 18 18 18 17 17 17 17 16
14 14 14 14 15 14 13 12 11 11 12 13 14 13 12 12 12 12 13 13 13 13 14 14 14 14 15 15 15 15 16 16 16 17 17 18 18 18 17 17 17 17 16 16
14 13 12 13 12 12 12 11 11 11 11 12 13 13 12 11 11 12 12 12 13 13 13 14 14 14 14 14 15 15 16 16 16 17 17 18 18 18 17 17 17 16 16 16
12 10 11 12 12 12 12 11 11 11 11 12 12 12 12 11 11 12 12 12 12 13 13 14 14 14 15 15 15 15 16 16 17 17 17 18 17 17 17 17 17 16 16 16
12 11 10 11 11 11 11 11 11 11 11 11 12 12 11 11 11 11 12 12 12 13 13 14 14 14 15 15 16 16 17 17 17 17 17 17 17 17 17 17 17 16 16 16
12 9 10 10 10 10 10 11 11 11 11 11 11 11 11 10 11 11 11 11 12 12 13 13 14 14 15 16 16 16 17 17 17 17 17 17 17 17 17 17 17 16 16 16
10 10 10 10 11 11 10 10 11 11 11 11 11 10 10 10 10 11 11 11 12 12 12 12 13 14 15 15 16 17 17 17 17 17 17 17 17 17 17 17 17 17 16 16
10 10 10 11 11 12 11 10 10 10 10 10 11 10 10 10 10 11 11 11 11 11 12 12 13 14 14 15 15 16 16 16 16 16 16 16 16 16 16 16 16 16 16 16
9 10 9 10 11 11 9 9 10 10 10 9 9 9 10 10 10 10 10 11 11 12 12 12 13 13 13 14 14 15 15 15 15 15 15 15 15 15 15 16 16 16 16 16
9 8 7 9 10 10 9 10 10 10 10 9 9 10 10 9 10 12 11 11 12 12 13 13 13 13 13 13 13 13 14 14 14 14 14 14 14 15 15 15 15 15 15 15
8 8 8 8 9 9 10 10 10 9 10 10 9 9 9 10 12 12 12 12 13 13 13 13 13 13 13 13 13 13 13 13 13 13 13 13 13 13 14 14 14 14 14 14
8 7 7 8 9 9 10 10 10 9 10 10 9 9 9 9 9 11 12 13 14 14 14 13 13 13 13 13 13 13 12 12 12 12 12 12 12 12 12 12 12 12 12 12
8 7 7 7 8 8 10 10 10 10 10 10 10 10 9 9 9 11 12 13 14 14 14 14 14 13 13 13 13 13 12 12 12 12 12 11 11 11 11 11 12 11 11 12
8 8 7 7 8 8 10 10 9 9 11 10 10 10 10 11 12 12 13 14 14 14 14 14 14 14 14 13 13 13 13 12 12 12 12 11 11 11 11 11 11 11 11 11
8 8 7 7 8 10 11 11 11 11 11 11 11 11 11 11 12 13 14 14 15 15 15 14 14 14 14 14 14 13 13 12 12 12 11 11 11 11 11 11 11 11 11 11
8 8 7 8 8 10 11 11 11 11 11 11 11 11 11 11 12 13 14 14 15 15 15 15 15 15 14 14 14 13 13 12 12 12 11 11 11 11 11 11 11 11 11 11
8 7 7 8 9 10 11 11 11 11 11 11 11 11 11 12 12 13 13 14 14 15 15 15 15 15 15 14 14 14 13 13 12 12 11 11 11 11 11 11 11 11 10 10
8 8 8 8 10 10 11 12 11 11 11 11 11 11 11 11 12 12 13 14 14 15 15 15 15 15 15 15 15 14 14 13 12 12 12 11 11 11 11 11 10 10 10 10

GEFSCGP_850_meantemp_036.txt.gz
Temperature
24 25 25 24 24 24 25 24 25 25 25 24 25 25 24 22 21 21 21 21 21 20 20 19 19 20 21 21 21 21 21 20 20 20 19 19 19 18 18 18 18 18 17 17
26 24 24 24 24 24 24 24 24 24 24 24 24 24 23 21 21 20 20 20 20 19 19 19 19 19 20 21 21 21 21 21 20 20 20 20 19 19 19 19 18 18 18 18
24 23 24 24 24 24 24 23 23 23 23 24 24 24 23 22 21 20 19 19 19 18 18 18 18 19 19 20 21 21 21 21 21 20 20 20 19 19 18 18 18 18 18 18
23 23 23 23 22 22 23 22 21 22 22 23 23 23 24 22 21 20 19 19 18 17 17 17 17 17 18 19 20 20 20 20 20 20 19 19 19 18 18 18 18 18 18 18
22 22 22 22 21 21 21 21 21 21 22 22 23 22 24 21 20 20 19 18 17 17 16 16 16 16 17 18 19 19 19 19 19 19 19 19 18 18 17 17 17 17 18 18
22 21 21 21 21 21 21 21 22 22 22 21 22 22 22 19 18 18 18 18 17 16 16 16 16 16 16 17 17 18 18 18 18 18 18 17 17 17 17 17 17 17 17 17
22 21 20 20 21 21 20 20 20 20 20 20 22 21 18 16 17 17 17 17 16 16 16 15 15 15 15 16 16 17 17 17 17 17 16 16 16 16 16 16 16 17 17 17
21 20 19 19 19 19 19 19 18 17 18 19 20 18 15 16 16 16 16 16 15 15 15 14 14 14 14 15 15 15 16 15 15 15 15 15 15 16 15 16 16 16 16 16
20 19 19 18 18 18 18 18 18 17 18 18 19 17 15 16 16 15 15 15 14 14 14 14 14 13 13 14 14 14 15 14 15 15 15 15 15 15 15 15 15 16 16 16
19 19 18 18 18 18 17 17 17 16 16 16 17 16 13 13 13 14 14 13 13 13 13 13 13 13 13 13 13 14 14 14 14 14 14 14 15 15 15 15 16 16 16 16
19 19 18 18 16 15 16 15 15 16 15 15 14 13 12 11 12 12 12 12 12 13 12 12 13 13 13 13 13 14 14 14 14 14 14 14 15 15 15 15 16 16 16 16
18 19 18 17 16 16 15 14 14 14 14 14 13 12 11 11 11 11 11 11 12 12 12 12 12 13 13 13 13 13 14 14 14 14 15 15 15 15 15 15 16 16 16 15
18 18 18 17 16 16 14 14 14 13 13 12 12 11 11 11 11 11 11 11 11 12 12 12 12 12 13 13 13 13 14 14 14 14 15 15 15 15 15 15 15 15 15 15
17 18 17 15 14 13 13 14 14 14 12 12 11 11 11 11 11 11 11 11 11 11 11 11 12 12 12 13 13 13 14 14 14 14 14 14 15 15 15 15 15 15 15 15
18 17 16 15 14 14 14 13 13 13 12 11 11 11 11 11 11 11 11 11 12 11 11 11 11 11 12 12 13 13 13 13 14 14 14 14 14 15 15 15 15 15 15 15
17 17 16 15 15 15 14 14 13 13 12 12 12 12 12 12 12 12 12 12 12 12 12 12 12 12 12 12 12 12 12 13 13 13 14 14 14 14 15 15 15 15 15 15
17 17 17 16 15 15 15 13 13 13 12 12 12 12 12 12 12 12 12 12 12 12 12 12 12 12 12 12 11 11 12 12 12 13 13 13 13 14 14 14 14 14 14 15
17 16 16 16 16 15 14 14 13 13 13 13 13 13 12 12 12 13 12 12 13 13 13 12 12 12 12 12 12 12 12 12 12 12 12 12 12 13 13 13 13 13 13 14
16 16 16 17 16 15 14 14 14 14 14 14 14 14 13 13 15 15 13 13 13 13 13 13 12 12 12 12 12 12 12 12 11 11 11 12 12 12 12 12 12 12 12 12
15 16 17 16 17 16 16 14 13 14 15 14 13 14 14 15 17 15 13 13 13 13 13 13 13 13 13 12 12 12 12 12 11 11 11 11 12 12 12 12 12 12 12 12
16 16 16 16 17 16 15 13 13 15 15 14 13 13 13 14 14 13 13 13 13 13 14 13 13 13 13 13 13 13 12 12 11 11 11 11 11 11 12 12 12 12 12 12
17 17 16 16 16 16 14 13 15 16 14 13 13 13 13 13 13 13 13 13 14 14 14 14 14 13 13 13 13 13 12 12 11 11 11 11 11 11 11 12 12 12 12 11
16 17 17 16 16 14 13 14 13 13 13 13 13 12 12 12 13 13 13 13 13 14 14 14 14 14 14 13 13 13 12 12 11 11 11 11 11 11 11 11 11 11 11 11
16 14 15 15 15 14 13 13 12 12 13 12 12 12 12 12 13 13 13 13 13 14 14 15 15 14 14 14 13 13 13 12 12 11 11 11 11 11 11 11 11 11 11 10
17 15 15 16 15 14 13 13 13 12 12 12 12 12 12 12 12 12 13 13 13 14 14 14 14 15 15 14 14 14 13 13 12 12 11 11 11 11 10 10 10 10 10 10
16 15 16 17 16 15 15 13 13 12 12 12 12 12 12 12 12 12 12 12 13 14 14 14 15 15 15 15 14 14 14 13 13 12 12 11 11 11 10 10 10 10 10 10

GEFSCGP_850_meantemp_042.txt.gz
Temperature
28 28 26 26 27 27 27 27 27 27 28 27 26 26 26 26 25 25 25 25 24 23 23 22 21 22 22 22 22 23 23 22 22 21 21 21 20 20 20 19 19 19 19 19
28 27 27 27 27 27 27 26 26 26 27 26 25 25 26 25 24 23 23 23 22 22 21 21 20 20 20 20 21 21 22 22 22 21 21 20 20 20 19 19 19 19 19 18
27 26 27 27 27 25 25 25 24 24 25 25 25 24 25 25 24 22 21 21 21 20 20 20 19 19 19 19 19 20 20 21 22 21 21 20 20 19 19 19 19 18 18 18
27 26 26 26 25 24 23 24 24 24 23 23 24 23 23 22 20 19 19 19 19 19 19 18 18 17 17 17 18 19 20 20 21 21 21 20 20 19 19 19 18 18 18 18
25 25 24 24 23 24 23 24 23 23 23 23 23 23 22 19 17 17 17 17 17 18 18 17 17 16 16 16 17 18 18 19 20 20 20 20 19 19 18 18 18 18 18 18
25 25 24 23 24 24 24 24 24 24 23 22 23 22 18 16 16 16 16 16 16 16 16 16 16 15 16 16 16 17 17 18 19 19 19 19 19 18 18 17 17 17 17 17
25 24 23 23 22 22 23 22 21 22 22 21 22 19 15 15 15 15 15 15 15 15 15 15 15 15 15 15 15 16 16 16 17 18 18 18 17 17 17 16 16 16 16 16
25 23 22 22 21 20 21 21 19 18 19 20 20 17 14 14 14 14 14 14 14 14 14 14 14 14 14 14 14 15 15 15 16 16 16 16 16 16 16 16 16 16 15 15
23 22 22 22 22 21 20 19 20 19 19 19 18 16 15 14 14 13 13 13 13 13 13 13 13 13 13 13 14 14 14 14 15 15 15 15 15 15 15 15 15 15 15 15
23 22 22 22 21 20 20 19 19 18 17 17 17 14 12 12 12 13 13 12 12 12 12 12 12 13 13 13 13 13 14 14 14 14 14 14 14 14 14 14 14 14 14 15
22 22 22 21 19 18 18 18 18 18 17 15 14 13 12 11 11 11 12 12 12 12 12 12 12 12 13 13 13 13 13 13 13 14 14 14 14 14 14 14 14 15 15 15
22 22 21 19 19 19 18 17 17 16 15 15 13 12 12 12 11 12 12 11 11 11 11 12 12 12 12 13 13 13 13 13 13 13 14 14 14 14 14 14 15 15 15 16
20 21 20 18 19 19 18 17 17 16 15 14 13 12 13 12 12 12 12 12 12 12 12 12 12 12 12 12 12 13 13 13 13 13 13 14 14 14 14 15 15 15 15 16
18 21 19 18 17 17 17 17 17 16 15 13 12 12 13 13 13 13 12 12 12 12 12 12 12 12 12 12 12 12 12 13 13 13 13 13 14 14 14 14 15 15 15 15
21 20 19 18 18 18 17 17 17 16 15 14 13 13 13 13 13 13 13 13 13 13 13 13 13 13 12 12 12 12 12 13 13 13 13 13 13 14 14 14 14 15 15 15
22 20 20 19 19 19 18 17 17 16 16 15 15 14 15 14 14 14 14 14 14 14 14 14 13 13 13 13 13 12 12 12 12 13 13 13 13 13 13 14 14 14 15 15
21 21 20 20 19 19 18 18 17 16 16 16 15 15 16 15 15 15 15 15 15 14 14 14 14 14 14 13 13 13 12 12 12 12 12 12 12 13 13 13 13 13 14 14
21 21 21 21 20 18 17 18 18 17 17 17 16 17 16 16 16 15 15 15 15 15 15 15 15 14 14 14 14 13 13 12 12 12 12 12 12 12 12 13 13 13 13 13
21 20 20 21 20 18 17 18 18 18 17 18 17 17 17 17 16 16 16 15 15 15 15 15 15 15 14 14 14 13 13 12 12 12 12 12 12 12 12 12 12 12 12 12
20 20 20 20 20 19 18 19 18 18 17 18 18 17 17 17 16 16 16 15 15 15 15 15 15 15 14 14 14 13 13 12 12 12 11 11 12 12 12 12 12 12 12 12
20 20 19 20 20 19 19 18 18 17 17 18 17 17 17 17 16 16 16 15 15 15 15 15 15 15 14 14 14 13 13 12 12 12 12 12 12 12 12 12 11 11 11 11
21 21 21 20 20 18 18 18 18 18 18 18 17 17 16 16 16 16 16 15 15 15 15 15 15 15 15 14 14 13 13 13 12 12 12 12 12 12 11 11 11 11 11 11
21 21 20 20 18 18 18 18 18 18 18 17 17 16 16 16 16 16 16 15 15 15 15 15 15 15 15 15 14 14 13 13 13 12 12 12 12 11 11 11 11 11 11 11
22 21 20 20 19 18 17 18 17 17 17 16 16 16 16 16 16 16 16 15 15 15 15 15 15 15 15 15 15 14 14 14 14 13 13 12 12 11 11 11 11 11 11 11
22 20 20 20 20 18 17 17 17 16 16 16 16 15 15 15 15 15 15 15 15 15 15 15 15 15 15 15 15 15 14 14 14 14 13 12 12 11 11 11 11 11 11 10
22 21 20 20 20 19 17 17 17 16 16 16 16 16 15 15 15 15 15 15 15 15 15 15 15 15 15 15 15 15 14 14 14 13 13 12 12 11 11 11 11 10 10 10

GEFSCGP_850_meantemp_048.txt.gz
Temperature
24 21 21 22 22 22 22 21 21 21 21 20 18 16 16 16 16 15 15 15 15 15 16 17 17 18 18 19 19 19 20 20 20 20 20 20 20 20 20 19 19 19 19 19
20 21 22 22 22 21 20 20 20 20 21 20 17 16 16 15 15 14 14 14 14 14 15 16 16 17 17 18 18 18 19 19 20 20 20 20 20 20 19 19 19 19 19 19
20 21 22 21 20 20 20 20 20 20 19 19 17 15 14 15 14 14 14 13 13 13 14 15 16 16 16 17 17 17 18 19 19 19 19 19 19 19 19 19 18 19 19 18
20 20 21 20 19 19 19 20 20 20 18 16 18 15 12 13 13 13 13 13 13 13 13 14 15 15 15 16 16 17 17 18 18 18 18 19 19 19 19 19 18 18 18 18
19 19 19 19 19 19 19 19 19 19 18 16 15 13 12 12 12 12 12 12 12 12 12 13 13 14 15 15 15 16 16 17 17 18 18 18 18 19 18 18 18 18 18 18
19 20 20 19 19 19 17 17 17 15 14 14 14 13 12 11 11 12 12 12 12 12 12 12 13 13 14 14 14 15 15 16 16 17 17 17 18 18 18 18 18 17 17 17
18 18 19 19 17 17 15 14 14 14 13 13 14 13 12 12 12 12 12 11 11 12 12 12 12 13 13 14 14 14 14 15 15 16 16 16 17 17 17 17 17 17 16 16
17 16 18 18 17 17 16 14 13 14 13 13 13 12 12 12 12 12 12 11 11 11 12 12 12 12 13 13 13 13 14 14 14 15 15 15 15 16 16 16 16 16 15 15
16 17 18 18 17 16 15 14 14 13 14 13 12 12 12 12 12 12 12 11 11 11 11 12 12 12 12 13 13 13 13 13 13 14 14 14 14 15 15 15 15 15 15 15
17 16 18 18 17 16 15 14 12 12 12 12 12 12 11 11 11 11 11 11 11 11 11 11 12 12 12 12 12 13 13 13 13 13 14 14 14 14 14 14 14 14 14 14
16 15 15 15 15 14 14 13 12 11 11 11 11 11 12 11 11 11 11 11 11 11 11 11 11 12 12 12 12 12 13 13 13 13 13 13 14 14 14 14 14 14 14 14
15 13 13 15 16 16 15 14 12 11 11 11 11 11 12 11 11 11 11 12 12 12 12 12 12 12 12 12 12 12 12 13 13 13 13 13 13 13 14 14 14 14 14 14
15 13 13 14 14 15 15 14 13 11 10 10 10 11 12 12 12 12 12 13 13 12 12 12 12 12 12 12 12 12 12 12 13 13 13 13 13 14 14 14 14 14 14 14
15 13 13 14 14 14 14 14 13 11 10 11 11 11 12 12 11 12 13 13 13 13 13 13 12 12 12 12 12 12 12 12 12 13 13 13 13 13 14 14 14 14 14 14
14 14 15 15 16 15 15 14 14 13 12 11 12 12 12 12 12 13 13 13 13 13 13 13 13 13 12 12 12 12 12 12 12 12 13 13 13 13 13 14 14 14 14 14
14 14 15 15 16 16 15 15 14 14 13 12 12 12 13 13 13 13 14 14 14 14 13 13 13 13 12 12 12 12 12 12 12 12 12 12 12 13 13 13 13 13 13 13
14 14 14 14 16 15 14 15 14 14 14 13 13 13 13 13 13 14 14 14 14 14 14 14 13 13 13 12 12 12 12 12 12 12 12 12 12 12 12 12 13 13 13 13
14 13 12 13 15 15 14 15 15 15 15 14 14 14 14 14 14 14 14 14 14 14 14 14 14 13 13 13 12 12 12 12 12 12 12 12 12 12 12 12 12 12 12 12
14 14 13 12 14 14 15 15 15 15 15 15 14 15 15 15 14 14 15 15 14 14 14 14 14 14 13 13 13 13 12 12 12 12 11 11 12 12 12 12 12 11 11 11
14 12 13 13 15 14 15 15 17 15 14 15 15 15 15 14 11 13 15 15 15 15 15 14 14 14 14 13 13 13 12 12 12 12 12 11 11 11 11 11 11 11 11 11
15 14 13 13 14 14 15 16 16 14 14 16 16 16 15 15 13 15 15 15 15 15 15 15 14 14 14 14 13 13 13 12 12 12 12 12 11 11 11 11 11 11 11 11
14 13 13 12 14 14 16 15 14 14 16 16 16 16 16 15 15 15 15 15 15 15 15 15 15 14 14 14 14 13 13 13 12 12 12 12 11 11 11 11 11 11 11 11
13 13 12 13 13 15 17 17 17 17 16 16 16 16 16 15 15 15 15 15 15 15 15 15 15 15 14 14 14 14 13 13 13 12 12 11 11 11 11 11 11 11 11 11
15 14 13 13 14 16 17 17 17 17 17 16 16 16 16 15 15 15 15 15 15 15 15 15 15 15 15 14 14 14 14 13 13 12 12 11 11 11 11 11 11 11 11 11
15 15 13 14 14 15 16 17 17 17 17 16 16 16 16 15 15 15 15 15 15 15 15 15 15 15 15 14 14 14 14 13 13 12 12 12 11 11 11 11 11 11 10 10
15 14 14 13 15 15 17 17 17 16 16 16 16 16 15 15 15 15 15 15 15 15 15 15 15 15 15 15 14 14 14 13 13 12 12 12 11 11 11 11 11 10 10 10

GEFSCGP_850_meantemp_054.txt.gz
Temperature
21 18 18 19 19 20 20 20 19 18 16 14 13 13 13 13 13 13 12 12 12 12 14 14 15 15 16 16 16 17 17 17 18 18 18 18 18 18 18 18 18 18 18 18
18 18 19 19 19 19 19 19 18 17 16 14 13 13 13 13 13 13 12 12 12 12 13 14 14 15 15 15 15 16 16 16 17 17 17 18 18 18 18 18 18 18 18 18
18 18 19 18 17 18 18 18 18 17 15 14 13 13 12 12 13 13 12 12 12 12 12 12 13 13 14 14 14 15 15 15 16 16 17 17 17 18 18 18 18 18 18 18
18 18 18 17 17 17 17 18 17 17 15 13 14 13 11 11 11 12 12 12 11 12 12 12 12 13 13 13 14 14 14 15 15 15 16 16 17 17 17 18 18 18 18 18
18 18 17 17 17 17 17 16 16 16 14 12 11 12 11 10 11 11 12 12 11 11 11 11 12 12 12 13 13 13 14 14 15 15 15 16 16 16 17 17 17 17 17 17
17 17 17 16 17 16 15 15 14 12 12 11 11 11 11 10 11 11 11 11 11 11 11 11 12 12 12 12 13 13 13 14 14 14 15 15 15 16 16 16 16 16 16 17
16 16 16 16 15 15 13 13 13 13 11 12 12 11 11 11 11 11 11 11 11 11 11 11 11 12 12 12 12 13 13 13 13 14 14 14 15 15 15 15 16 16 16 16
16 14 15 15 15 14 13 12 13 14 12 11 11 11 11 12 12 12 12 12 11 11 11 11 11 11 12 12 12 12 13 13 13 13 13 14 14 14 15 15 15 15 15 15
14 15 16 16 15 14 14 11 12 11 11 11 11 12 12 12 11 12 12 12 11 11 11 11 11 11 11 12 12 12 12 12 13 13 13 13 14 14 14 14 14 15 15 15
14 15 15 15 15 13 12 11 10 11 11 11 11 11 10 10 11 11 11 11 11 11 11 11 11 11 11 11 12 12 12 12 12 13 13 13 13 13 14 14 14 14 14 14
14 14 14 14 13 13 12 12 9 9 10 10 11 10 11 11 10 10 11 11 12 12 11 11 11 11 11 11 12 12 12 12 12 12 13 13 13 13 13 14 14 14 14 14
12 11 12 14 14 14 13 12 10 10 9 9 9 10 12 11 11 11 11 12 12 12 12 12 11 11 11 11 11 11 12 12 12 12 12 13 13 13 13 13 14 14 14 14
13 12 12 14 13 13 13 12 10 9 8 9 10 11 12 12 12 12 12 12 13 12 12 12 12 11 11 11 11 11 11 11 11 12 12 12 13 13 13 13 13 13 13 14
13 11 13 14 14 13 13 13 11 10 9 10 10 11 11 11 11 12 13 13 13 13 13 12 12 12 11 11 11 11 11 11 12 12 12 12 12 12 13 13 13 13 13 13
12 12 13 14 14 14 14 13 12 12 10 10 11 11 11 11 12 12 13 13 13 13 13 12 12 12 12 11 11 11 11 11 11 12 12 12 12 12 12 12 13 13 13 13
12 13 14 14 14 14 14 13 13 12 11 11 12 11 12 13 13 13 13 13 13 13 13 13 12 12 12 11 11 11 11 11 11 11 11 11 11 12 12 12 12 12 12 13
11 12 12 12 14 14 13 13 13 13 12 12 11 12 12 13 13 13 13 13 13 13 13 13 13 12 12 12 11 11 11 11 11 11 11 11 11 11 11 11 12 12 12 12
12 11 10 11 13 14 14 14 13 13 13 12 12 12 13 13 14 14 14 14 14 14 13 13 13 13 12 12 12 11 11 11 11 11 11 11 11 11 11 11 11 11 11 11
11 11 10 10 12 13 14 14 13 13 13 13 12 13 14 14 13 14 14 14 14 14 14 13 13 13 13 12 12 12 12 11 11 11 11 11 10 11 11 11 11 11 11 11
11 10 10 11 14 14 15 14 15 14 13 14 14 14 14 13 11 12 14 14 14 14 14 14 14 13 13 13 12 12 12 12 11 11 11 11 10 10 11 10 10 10 11 11
13 11 11 11 13 12 13 14 15 13 13 15 15 15 14 13 13 15 15 14 14 14 14 14 14 14 13 13 13 12 12 12 11 11 11 11 11 10 10 10 10 10 10 10
12 11 11 10 12 13 14 13 13 13 16 16 16 16 15 15 15 15 15 14 14 14 14 14 14 14 14 13 13 13 12 12 12 11 11 11 11 11 10 10 10 10 10 10
11 11 10 11 13 14 15 16 17 17 17 17 16 16 16 15 15 15 15 15 15 15 15 14 14 14 14 14 13 13 13 12 12 11 11 11 11 11 10 10 10 10 10 10
11 11 10 10 11 14 16 16 17 17 17 17 17 16 16 16 15 15 15 15 15 15 15 15 15 14 14 14 13 13 13 12 12 11 11 11 11 10 10 10 10 10 10 10
12 10 11 12 12 14 16 17 17 17 17 17 16 16 16 16 16 15 15 15 15 15 15 15 15 15 14 14 14 13 13 12 12 12 11 11 11 10 10 10 10 10 10 9
12 11 12 13 16 15 18 18 17 17 17 17 16 16 16 16 16 16 15 15 15 15 15 15 15 15 14 14 14 13 13 13 12 12 11 11 11 10 10 10 10 10 10 9

GEFSCGP_850_meantemp_060.txt.gz
Temperature
25 26 25 24 25 25 25 25 23 21 19 19 18 17 17 16 16 16 16 16 16 15 15 14 14 14 14 14 14 14 15 15 15 16 16 17 17 17 17 17 17 17 17 17
26 24 23 24 24 25 25 24 22 20 19 19 18 18 18 17 16 16 15 15 15 15 14 14 14 13 13 13 13 13 14 14 15 15 16 16 16 17 17 17 17 17 17 17
25 23 22 23 24 24 23 23 22 20 19 19 19 18 18 18 17 16 15 15 15 14 14 13 13 13 13 13 12 13 13 14 14 14 15 15 15 16 16 16 16 17 17 17
23 22 22 23 22 23 22 21 21 20 20 20 19 20 18 18 18 17 16 15 14 14 13 13 13 12 12 12 12 12 13 13 13 14 14 14 15 15 15 16 16 16 16 17
22 22 22 22 21 21 21 20 20 20 21 20 20 20 19 18 17 17 16 15 14 14 13 12 12 12 12 12 12 12 12 13 13 13 13 14 14 14 15 15 16 16 16 16
21 20 21 21 20 19 20 20 20 20 21 20 19 19 18 17 16 16 15 15 14 13 13 12 12 12 12 12 12 12 12 12 13 13 13 13 14 14 14 14 15 15 15 16
21 21 20 20 21 21 21 21 22 21 21 20 18 18 17 16 16 15 15 14 14 13 13 12 12 11 11 12 12 12 12 12 13 13 13 13 13 13 14 14 14 15 15 15
23 21 20 20 20 20 20 21 21 21 21 19 18 17 17 16 16 15 15 14 13 13 12 12 11 11 11 11 11 12 12 12 12 12 13 13 13 13 13 14 14 14 14 15
23 21 19 18 19 20 20 20 20 21 20 20 19 17 17 17 16 15 15 14 14 13 12 12 11 11 11 11 11 11 12 12 12 12 12 12 13 13 13 13 14 14 14 14
23 21 19 19 19 18 19 19 20 20 20 20 18 18 17 16 16 16 15 14 14 13 12 12 11 11 11 11 11 11 11 12 12 12 12 12 12 13 13 13 13 14 14 14
22 22 20 20 19 19 19 19 19 19 19 19 18 17 17 16 16 15 15 14 14 13 12 12 12 11 11 11 11 11 11 11 12 12 12 12 12 13 13 13 13 13 13 14
20 22 21 19 18 17 18 18 19 19 19 18 18 17 17 16 15 15 15 14 14 13 13 12 12 11 11 11 11 11 11 11 11 12 12 12 12 12 13 13 13 13 13 13
20 21 21 20 19 18 18 17 17 18 18 18 18 17 17 16 16 15 14 14 14 14 13 13 12 12 11 11 11 11 11 11 11 11 12 12 12 12 12 12 12 12 13 13
19 21 21 21 20 19 18 17 17 18 19 18 17 17 17 16 16 15 15 14 14 14 14 13 12 12 12 11 11 11 11 11 11 11 11 11 11 12 12 12 12 12 12 12
20 21 20 19 19 18 18 18 17 18 18 18 18 17 17 17 16 15 15 14 14 14 14 13 13 12 12 12 11 11 11 11 11 11 11 11 11 11 11 12 12 12 12 12
21 20 20 19 18 18 18 18 17 17 17 17 17 17 18 16 16 16 15 15 15 14 14 13 13 13 12 12 12 11 11 11 11 11 11 11 11 11 11 11 11 11 12 12
21 21 20 20 19 18 19 20 18 18 18 18 18 18 18 17 16 16 15 15 15 14 14 14 13 13 12 12 12 11 11 11 11 11 11 11 11 11 11 11 11 11 11 11
21 20 20 20 20 20 21 19 19 19 19 19 18 18 17 17 16 15 15 15 15 14 14 14 13 13 13 12 12 12 11 11 11 11 10 10 11 11 11 11 11 11 11 11
20 20 20 20 21 21 20 19 19 18 19 19 19 18 17 16 16 16 15 15 15 14 14 14 13 13 13 13 12 12 12 11 11 11 10 10 10 11 11 11 11 11 11 11
18 20 20 20 20 21 21 20 19 19 19 20 19 18 17 17 18 18 16 15 14 14 14 14 14 13 13 13 12 12 12 11 11 11 11 10 11 11 11 11 10 10 10 10
19 19 20 20 20 22 21 18 18 19 21 20 19 18 17 17 19 17 15 15 14 14 14 14 14 13 13 13 13 12 12 11 11 11 11 11 11 10 10 10 10 10 10 10
21 21 20 20 20 21 18 18 19 21 20 19 18 18 17 17 16 15 15 15 14 14 14 14 14 14 13 13 13 12 12 11 11 11 11 11 11 11 10 10 10 10 10 10
21 22 22 21 22 20 18 19 19 19 19 19 18 18 17 17 16 15 15 15 15 14 14 14 14 14 13 13 13 12 12 12 11 11 11 11 11 11 10 10 10 10 10 10
21 19 20 20 21 19 17 18 18 18 19 18 18 17 17 16 16 16 15 15 15 15 15 15 14 14 14 13 13 12 12 12 11 11 11 11 11 10 10 10 10 10 10 9
22 19 20 21 22 19 17 17 18 17 17 17 17 17 17 17 16 16 16 15 15 15 15 15 14 14 14 13 13 13 12 12 11 11 11 11 11 10 10 10 10 10 10 10
21 20 21 22 23 22 21 19 18 17 17 17 17 17 16 16 16 16 16 15 15 15 15 15 15 14 14 14 13 13 13 12 12 12 11 11 11 10 10 10 10 10 10 10

GEFSCGP_850_meantemp_066.txt.gz
Temperature
29 29 27 27 28 28 28 27 27 25 24 24 23 22 21 20 20 19 19 19 18 17 17 16 15 15 15 14 14 14 14 14 15 15 15 15 16 16 16 17 17 17 17 17
29 28 27 28 28 28 28 27 27 25 24 24 23 22 21 20 20 19 19 18 18 17 16 15 15 14 14 14 14 14 14 14 14 14 14 14 15 15 16 16 16 17 17 17
27 27 27 27 27 27 27 26 25 25 24 24 23 22 21 21 20 19 18 18 17 16 15 15 14 14 14 13 13 13 13 13 13 14 14 14 14 15 15 16 16 16 16 16
27 27 27 27 27 25 25 25 24 24 24 23 23 21 20 21 20 19 18 17 16 16 15 14 14 13 13 13 13 13 13 13 13 13 13 14 14 14 15 15 15 16 16 16
26 26 26 26 25 24 24 24 24 24 23 23 24 23 20 21 19 18 18 17 16 15 15 14 14 13 13 13 12 12 13 13 13 13 13 13 13 14 14 14 15 15 15 16
25 25 25 25 25 24 24 24 24 24 24 22 24 23 20 19 18 18 18 17 16 15 15 14 14 13 13 12 12 12 12 12 13 13 13 13 13 14 14 14 14 15 15 15
25 25 25 25 24 25 25 24 23 23 22 22 23 22 19 18 19 18 17 17 16 15 15 14 13 13 13 12 12 12 12 12 12 12 13 13 13 13 14 14 14 14 14 15
27 25 24 24 23 23 24 24 22 22 23 22 22 21 18 19 19 18 17 17 16 15 15 14 13 13 13 12 12 12 12 12 12 12 13 13 13 13 13 13 14 14 14 14
27 23 23 23 23 23 23 24 24 23 23 23 23 20 19 19 19 18 18 17 16 15 15 14 13 13 12 12 12 12 12 12 12 12 12 13 13 13 13 13 13 14 14 14
27 25 24 23 23 23 23 23 23 23 22 22 22 21 19 19 18 18 17 17 16 15 15 14 13 13 13 12 12 12 12 12 12 12 12 12 12 12 13 13 13 13 13 14
26 26 24 23 23 23 23 24 23 23 23 21 20 19 20 18 18 18 17 17 16 15 15 14 14 13 13 13 12 12 12 12 12 12 12 12 12 12 12 13 13 13 13 13
25 25 25 24 23 22 22 22 22 21 22 22 21 18 20 19 18 18 17 17 16 16 15 15 14 13 13 13 12 12 12 12 12 12 12 12 12 12 12 12 12 13 13 13
24 24 24 22 21 21 22 22 21 21 22 22 20 19 19 19 19 18 17 17 16 16 15 15 14 14 13 13 13 12 12 12 12 12 12 12 12 12 12 12 12 12 13 13
21 24 24 23 22 23 23 22 21 21 21 21 21 20 19 19 19 18 17 17 16 16 16 15 15 14 14 13 13 13 12 12 12 12 12 12 12 12 12 12 12 12 12 12
23 24 25 24 23 23 23 22 22 21 21 21 21 20 21 20 19 18 18 17 17 16 16 15 15 15 14 14 13 13 12 12 12 12 11 11 11 11 11 12 12 12 12 12
24 24 24 24 24 23 23 23 22 22 21 21 21 21 21 20 19 18 18 17 17 16 16 16 15 15 14 14 13 13 12 12 12 12 11 11 11 11 11 11 11 11 12 12
25 24 24 24 24 23 23 24 23 22 22 22 21 21 21 20 19 19 18 17 17 17 16 16 15 15 15 14 14 13 13 12 12 12 11 11 11 11 11 11 11 11 11 11
25 24 24 24 24 23 23 24 24 23 23 23 22 22 21 20 19 18 18 18 17 17 16 16 15 15 15 15 14 14 13 12 12 11 11 11 11 11 11 11 11 11 11 11
24 24 23 24 24 25 23 24 23 23 22 24 23 22 21 20 19 19 18 18 17 17 16 16 15 15 15 15 14 14 13 13 12 11 11 11 11 11 11 11 11 11 11 11
23 23 23 23 23 24 24 24 24 23 22 24 23 22 21 20 19 19 18 17 17 16 16 15 15 15 15 14 14 14 13 13 12 11 11 11 11 11 11 10 10 11 11 11
22 22 22 22 23 25 23 23 23 21 23 24 23 22 21 20 20 19 18 17 17 16 16 15 15 15 15 14 14 14 13 12 12 11 11 11 11 11 11 10 10 10 10 10
25 24 24 23 23 23 23 22 23 24 23 23 23 22 21 20 19 19 18 17 17 16 16 16 15 15 15 14 14 13 13 12 12 11 11 11 11 11 11 10 10 10 10 10
25 26 25 25 24 23 23 23 23 24 24 23 23 22 21 20 19 18 18 17 17 17 16 16 15 15 15 15 14 13 13 12 12 12 11 11 11 11 11 11 10 10 10 10
27 26 25 24 25 25 23 23 23 23 23 23 22 22 21 20 19 19 18 18 17 17 16 16 16 16 15 15 14 14 13 13 12 12 12 12 11 11 11 11 11 11 11 11
26 25 25 24 25 26 25 23 23 23 22 22 22 21 21 20 19 19 18 18 17 17 17 16 16 16 15 15 14 14 13 13 13 13 12 12 12 11 11 11 11 11 11 11
26 26 24 24 26 26 25 24 23 22 22 22 21 21 20 20 19 19 18 18 18 17 17 17 16 16 16 15 15 14 14 13 13 13 13 12 12 12 11 11 11 11 11 11

GEFSCGP_850_meantemp_072.txt.gz
Temperature
25 22 22 23 23 24 23 21 20 20 21 19 17 16 16 17 17 16 16 16 16 15 15 15 14 14 14 14 14 14 14 14 14 14 14 14 14 15 15 15 15 16 16 16
22 23 24 25 24 23 22 20 20 21 21 19 17 16 16 17 17 16 16 16 15 15 15 14 14 14 14 13 13 13 13 13 13 13 13 13 14 14 14 15 15 15 16 16
22 23 25 24 22 22 21 21 20 20 20 19 17 16 16 16 16 16 16 15 15 15 14 14 14 14 13 13 13 13 13 13 13 13 13 13 14 14 14 14 15 15 15 15
23 24 23 22 22 22 21 22 22 21 19 17 17 14 15 15 15 15 15 15 15 15 14 14 14 13 13 13 13 13 13 13 13 13 13 13 13 13 13 14 14 14 15 15
22 22 22 22 22 22 21 22 21 21 19 18 17 15 14 15 15 14 15 15 15 14 14 14 13 13 13 12 12 12 12 13 13 13 13 13 13 13 13 13 14 14 14 14
22 23 22 22 22 22 21 20 18 16 16 17 17 15 14 13 15 15 15 15 15 14 14 14 13 13 13 13 12 12 12 12 12 13 13 12 13 13 13 13 13 14 14 14
21 21 22 22 21 20 19 16 16 16 15 16 17 15 14 15 15 15 15 15 15 14 14 14 13 13 13 12 12 12 12 12 12 12 12 12 12 12 12 13 13 13 14 14
20 19 21 21 21 20 20 17 16 17 16 16 16 15 14 16 16 16 15 15 15 14 14 14 13 13 13 12 12 12 12 12 12 12 12 12 12 12 12 12 13 13 13 14
18 19 21 21 21 20 20 18 17 15 17 16 15 15 15 16 15 15 15 15 15 14 14 14 13 13 13 12 12 12 12 12 12 12 12 12 12 12 12 12 13 13 13 13
19 19 20 21 21 21 20 18 15 16 17 16 16 15 14 15 14 14 14 15 15 15 14 14 14 13 13 13 12 12 12 12 12 12 12 12 12 12 12 12 13 13 13 13
19 18 19 20 20 20 19 19 16 14 14 15 15 15 15 14 14 14 15 15 15 15 14 14 14 13 13 13 12 12 12 12 12 12 12 12 12 12 12 12 12 13 13 13
18 15 17 18 19 20 20 18 16 15 16 14 14 14 16 15 15 15 15 15 15 15 15 14 14 14 13 13 13 12 12 12 11 11 12 12 12 12 12 12 12 12 12 13
18 16 16 18 17 19 19 19 17 14 14 14 14 15 15 15 15 16 16 15 15 15 15 14 14 14 13 13 13 12 12 12 11 11 11 12 12 12 12 12 12 12 12 12
18 16 17 18 17 18 19 19 19 16 14 15 15 15 15 14 14 15 16 16 15 15 15 15 14 14 14 13 13 12 12 12 12 11 11 11 11 11 11 11 12 12 12 12
17 18 19 18 19 20 20 19 18 17 16 15 16 16 15 14 14 16 16 16 16 15 15 15 15 14 14 13 13 13 12 12 12 11 11 11 11 11 11 11 11 12 12 12
17 19 19 19 20 20 20 19 18 18 18 17 17 17 16 17 16 16 16 16 16 16 15 15 15 14 14 14 13 13 12 12 12 11 11 11 11 11 11 11 11 11 11 11
17 18 18 17 19 20 19 19 18 18 18 18 17 16 15 15 15 16 16 16 16 16 15 15 15 15 14 14 13 13 13 12 12 11 11 11 11 11 11 11 11 11 11 11
17 16 15 16 19 19 18 19 19 19 19 18 18 16 16 17 18 18 17 17 16 16 16 15 15 15 14 14 14 13 13 12 12 11 11 11 11 11 11 11 11 11 11 11
16 17 16 15 17 18 19 21 21 20 19 18 17 17 17 18 17 17 17 17 17 16 16 15 15 15 14 14 14 13 13 12 12 12 11 11 11 11 11 11 11 11 11 11
16 14 15 15 18 19 19 21 21 20 19 19 19 17 17 17 13 15 18 17 17 16 16 16 15 15 14 14 14 13 13 12 12 12 11 11 11 11 11 10 10 10 10 10
17 16 15 16 17 16 18 21 21 19 19 21 20 20 18 17 17 19 18 17 17 16 16 16 15 15 15 14 14 13 13 12 12 11 11 11 11 11 11 11 11 10 10 10
16 15 15 14 16 17 20 20 18 19 22 22 22 21 20 20 20 19 18 18 17 17 16 16 15 15 15 14 14 14 13 13 12 12 11 11 11 11 11 11 11 11 11 11
15 16 15 15 17 20 22 22 24 23 22 22 22 22 21 20 19 19 18 18 17 17 16 16 16 15 15 15 14 14 13 13 12 12 12 11 11 11 11 11 11 11 11 11
17 18 16 17 18 21 23 23 23 23 22 22 22 22 21 20 20 19 18 18 17 17 17 16 16 16 15 15 15 14 14 13 13 12 12 12 12 11 11 11 11 11 11 11
19 19 18 19 18 21 23 23 24 23 23 22 22 22 21 21 20 19 18 18 18 17 17 17 16 16 16 15 15 15 14 14 13 13 12 12 12 12 11 11 11 11 11 11
15 16 17 17 19 19 22 23 23 23 23 22 22 22 21 21 20 20 19 18 18 18 17 17 17 16 16 16 15 15 15 14 14 13 13 12 12 12 11 11 11 11 11 11

GEFSCGP_850_meantemp_078.txt.gz
Temperature
23 21 20 21 21 21 21 20 19 18 18 17 16 15 15 15 15 15 15 15 15 15 14 14 14 14 13 13 13 13 13 13 13 13 13 13 14 14 14 14 14 14 15 15
20 21 22 21 21 21 20 19 19 18 18 17 15 15 15 15 15 15 15 15 15 15 14 14 14 13 13 13 13 13 13 13 13 13 13 13 13 13 13 13 14 14 14 14
21 22 22 21 20 20 20 19 19 18 16 15 16 15 15 15 15 15 15 15 15 14 14 14 14 13 13 13 13 12 12 12 12 12 12 12 13 13 13 13 13 14 14 14
21 21 21 20 20 20 20 20 19 18 16 15 16 14 14 14 14 14 15 15 15 14 14 14 13 13 13 12 12 12 12 12 12 12 12 12 12 12 12 12 13 13 13 13
21 21 21 21 20 20 20 18 18 17 16 15 15 14 13 13 13 13 14 15 15 14 14 14 13 13 13 12 12 12 12 12 12 12 12 12 12 12 12 12 12 13 13 13
20 21 20 20 19 19 18 16 15 13 14 15 15 14 14 12 13 14 14 15 15 14 14 14 13 13 13 12 12 12 12 12 12 12 12 12 12 12 12 12 12 13 13 13
20 20 20 20 19 18 17 15 15 15 14 14 15 14 14 14 13 14 14 15 15 14 14 13 13 13 13 12 12 12 12 12 12 12 12 12 12 12 12 12 12 12 13 13
20 19 19 20 19 18 17 16 15 16 15 14 14 14 14 15 15 15 15 15 15 14 14 14 13 13 13 12 12 12 12 12 12 12 12 12 11 12 12 12 12 12 12 12
18 19 19 20 19 18 17 15 15 13 15 14 14 14 14 14 14 14 14 14 14 14 14 14 13 13 13 12 12 12 12 12 12 12 12 11 11 11 12 12 12 12 12 12
18 19 19 19 19 18 17 14 12 13 15 14 14 14 14 14 13 13 13 14 15 14 14 14 13 13 13 12 12 12 12 12 12 11 11 11 11 11 11 12 12 12 12 12
17 17 18 18 18 18 17 15 12 11 12 13 14 14 14 14 14 13 13 15 15 15 14 14 14 13 13 13 12 12 12 12 12 12 11 11 11 11 11 12 12 12 12 12
15 14 16 17 18 18 18 16 13 14 14 12 12 13 14 14 14 14 15 15 15 15 14 14 14 14 13 13 12 12 12 12 11 11 11 11 11 11 11 12 12 12 12 12
15 15 16 17 17 18 18 16 14 12 11 10 12 13 14 14 14 15 15 15 15 15 15 14 14 14 13 13 13 12 12 12 11 11 11 11 11 11 11 11 11 11 11 11
16 14 16 17 17 16 17 16 13 13 13 12 12 13 14 14 13 14 15 16 15 15 15 14 14 14 14 13 13 12 12 12 11 11 11 11 11 11 11 11 11 11 11 11
15 16 17 17 17 17 17 17 15 14 14 13 14 14 14 14 14 15 16 16 15 15 15 15 14 14 14 13 13 13 12 12 11 11 11 11 11 11 11 11 11 11 11 11
14 17 18 18 18 17 18 17 16 15 15 14 14 14 14 16 16 16 16 16 16 15 15 15 15 14 14 14 13 13 12 12 11 11 11 11 11 11 11 11 11 11 11 11
14 16 16 16 16 18 18 18 17 16 15 15 15 15 15 15 15 17 17 17 16 16 16 15 15 15 14 14 13 13 13 12 12 11 11 11 11 11 11 11 11 11 11 11
14 13 12 14 17 19 18 18 17 17 16 15 15 15 16 17 18 18 18 18 17 16 16 15 15 15 14 14 13 13 13 12 12 11 11 11 11 11 11 10 11 11 11 11
13 13 13 13 16 16 18 19 18 18 18 17 15 15 17 16 16 18 19 18 17 17 16 16 15 15 14 14 14 13 13 12 12 12 11 11 11 11 11 10 10 10 10 10
12 12 12 13 17 18 19 19 19 19 19 19 18 17 16 15 14 16 19 19 18 17 16 16 15 15 15 14 14 13 13 12 12 12 11 11 11 11 11 10 10 10 10 10
15 13 13 14 15 15 16 18 19 19 18 20 20 19 17 16 17 20 19 19 18 17 17 16 15 15 15 14 14 14 13 13 12 12 12 11 11 11 11 10 10 10 10 10
14 13 13 12 15 17 18 17 17 18 20 21 21 21 20 20 20 19 19 19 18 17 17 16 16 15 15 15 14 14 13 13 13 12 12 12 11 11 11 11 11 10 10 11
13 14 12 13 15 17 18 18 19 19 20 20 21 21 21 21 20 20 19 19 18 18 17 16 16 16 15 15 15 14 14 13 13 12 12 12 11 11 11 11 11 11 11 11
13 13 12 13 15 17 17 18 19 19 20 20 20 21 21 21 21 20 20 19 18 18 17 17 16 16 16 15 15 15 14 14 13 13 13 12 12 12 11 11 11 11 11 11
14 12 13 15 15 16 18 17 18 20 20 21 21 21 20 20 20 20 20 19 19 18 18 17 17 16 16 16 16 15 15 14 14 13 13 12 12 12 12 11 11 11 11 11
11 12 14 14 14 13 15 16 17 19 20 20 20 20 20 20 20 20 20 19 19 18 18 17 17 17 17 16 16 16 15 15 14 14 13 13 13 12 12 12 11 11 11 11

GEFSCGP_850_meantemp_084.txt.gz
Temperature
25 27 27 27 27 27 26 26 26 24 23 22 23 23 22 20 19 19 19 19 19 18 17 16 15 14 14 13 13 13 13 13 12 12 13 13 13 13 13 13 13 13 13 13
26 26 26 26 26 26 26 26 25 23 22 22 23 23 23 21 20 19 19 19 19 18 17 16 15 14 14 13 13 13 13 12 12 12 12 12 12 12 12 12 12 13 13 13
27 26 26 26 25 26 25 25 25 24 22 22 22 23 23 21 20 19 18 18 18 17 17 16 15 14 14 13 13 13 12 12 12 12 12 12 12 12 12 12 12 12 13 13
26 25 25 26 25 25 25 24 23 23 23 24 22 23 24 22 21 20 19 18 18 17 16 15 15 14 14 13 13 13 12 12 12 12 12 12 12 12 12 12 12 12 12 13
25 25 25 25 24 24 24 23 23 23 23 23 23 23 24 22 22 21 20 19 18 17 16 15 15 14 13 13 12 12 12 12 12 12 12 12 12 12 12 12 12 12 12 12
24 24 25 24 23 23 23 23 23 23 23 23 23 23 23 23 22 21 20 19 17 17 16 15 14 14 13 13 12 12 12 12 12 12 12 12 12 11 12 12 12 12 12 12
24 24 23 23 24 23 24 24 24 24 23 23 22 22 23 23 21 21 20 19 18 17 16 15 15 14 13 13 12 12 12 12 12 12 12 12 11 11 12 11 12 12 12 12
25 24 24 24 24 24 24 24 24 23 23 24 22 22 24 21 20 19 18 18 17 17 16 15 14 14 13 13 12 12 12 12 12 12 12 11 11 11 11 11 11 12 12 12
26 24 23 22 23 24 23 24 23 23 23 23 24 23 23 21 20 19 19 18 17 17 16 15 14 14 13 13 12 12 12 12 11 11 11 11 11 11 11 11 12 12 12 12
26 24 23 22 23 21 23 23 23 23 22 23 23 23 23 23 22 21 20 19 18 17 16 15 14 14 13 13 12 12 12 11 11 11 11 11 11 11 11 11 11 11 12 12
25 25 23 23 23 23 22 22 22 22 22 22 23 23 23 22 22 21 20 19 18 17 16 15 15 14 13 13 13 12 12 12 11 11 11 11 11 11 11 11 11 11 11 12
24 25 24 23 22 22 23 23 23 23 22 21 22 23 22 22 21 20 20 19 18 17 16 15 15 14 14 13 13 13 12 12 11 11 11 11 11 11 11 11 11 11 11 11
23 24 24 23 22 21 22 21 21 22 22 22 22 23 22 22 21 20 19 19 18 17 16 15 15 14 14 13 13 13 12 12 12 11 11 11 11 11 11 11 11 11 11 11
22 25 24 24 24 23 22 21 20 21 22 22 22 23 23 23 22 21 20 18 18 17 16 16 15 15 14 14 13 13 12 12 12 11 11 11 11 11 11 11 11 11 11 11
23 24 24 23 22 22 22 22 21 21 22 22 23 22 23 23 22 21 19 18 18 17 16 16 15 15 14 14 13 13 12 12 12 11 11 11 11 11 11 11 11 11 11 11
23 23 23 23 22 22 22 22 21 21 21 22 22 22 23 22 21 20 20 19 18 17 17 16 16 15 15 14 14 13 13 12 12 11 11 11 11 11 11 11 11 11 11 11
23 23 23 23 22 22 23 23 22 22 22 22 22 23 23 22 22 21 20 19 18 18 17 16 16 16 15 15 14 13 13 12 12 12 11 11 11 11 11 11 11 11 11 11
23 23 23 23 23 22 24 23 23 23 23 23 23 23 22 21 21 20 19 19 19 18 17 16 16 16 15 15 14 13 13 13 12 12 11 11 11 11 11 11 11 11 11 11
22 22 23 23 23 23 23 23 22 23 23 24 23 23 22 20 20 21 20 19 18 18 17 16 16 16 15 15 14 14 13 13 12 12 12 11 11 11 11 11 11 11 11 11
20 22 23 22 22 23 24 23 22 23 23 23 23 22 22 21 23 23 20 19 18 17 17 16 16 15 15 15 14 14 14 13 13 12 12 12 11 11 11 11 11 11 11 11
21 21 22 22 23 24 23 21 21 23 24 22 22 22 21 22 23 20 19 18 18 17 17 17 16 15 15 15 14 14 14 14 13 13 12 12 12 12 11 11 11 11 11 11
23 22 22 22 22 23 21 21 23 23 21 21 21 21 20 20 19 19 18 18 18 18 17 17 16 16 15 15 15 14 14 14 13 13 13 12 12 12 12 12 11 11 11 11
23 24 24 23 23 21 18 20 19 18 19 20 20 19 19 19 19 18 18 18 18 18 17 17 16 16 15 15 15 15 14 14 14 13 13 13 12 12 12 12 11 11 11 11
23 20 22 22 22 19 18 17 16 16 17 18 18 18 18 19 18 18 18 18 18 18 17 17 17 16 16 15 15 15 15 14 14 13 13 13 13 12 12 12 12 12 11 11
23 20 22 23 22 19 17 16 15 16 16 17 17 17 18 18 18 18 18 18 18 17 17 17 17 16 16 16 15 15 15 15 14 14 13 13 13 13 13 12 12 12 12 12
21 21 22 24 22 22 19 15 15 16 16 17 17 17 17 17 17 17 17 17 17 17 17 17 17 17 16 16 15 15 15 15 14 14 14 14 13 13 13 13 12 13 12 12

GEFSCGP_850_meantemp_090.txt.gz
Temperature
27 27 26 26 26 25 25 25 26 26 26 26 26 26 26 25 24 24 23 23 23 22 21 20 18 18 17 16 16 15 15 15 14 14 14 13 13 13 14 14 14 13 13 14
27 27 27 27 26 25 26 26 27 27 27 26 26 27 27 26 25 24 24 23 23 22 21 20 19 18 17 16 15 15 15 14 14 14 14 13 13 13 13 13 13 13 13 13
26 27 28 28 27 26 27 27 26 26 27 27 26 26 27 26 25 24 23 23 22 22 21 20 18 18 17 16 15 15 15 14 14 14 13 13 13 13 13 13 13 13 13 13
26 27 28 27 27 26 26 27 27 26 26 26 27 25 26 25 24 24 23 23 22 21 20 19 18 17 17 16 15 14 14 14 14 13 13 13 13 13 13 13 13 13 13 13
26 27 27 27 27 27 26 27 26 26 26 26 27 26 26 25 25 24 24 23 22 21 20 19 18 17 16 16 15 14 14 14 13 13 13 13 13 13 13 13 13 13 13 13
26 28 27 27 27 27 27 27 27 26 26 25 26 26 25 25 24 24 24 23 22 21 20 19 18 17 16 15 15 14 14 13 13 13 13 13 13 13 13 13 13 13 13 13
26 27 27 27 27 27 27 26 25 25 24 25 27 26 25 24 25 24 23 23 22 21 20 19 18 17 16 15 15 14 14 13 13 13 13 13 13 13 13 12 12 13 13 13
26 26 27 27 27 27 27 26 25 24 25 26 26 26 24 25 24 23 23 22 21 20 20 19 18 17 16 15 15 14 14 13 13 13 13 13 13 13 12 12 12 12 12 13
26 26 27 27 27 27 26 27 27 25 26 26 27 26 24 24 24 23 23 22 21 21 20 19 18 17 16 15 15 14 14 14 13 13 13 13 13 12 12 12 12 12 12 12
26 25 26 26 26 26 27 26 26 25 24 25 26 26 24 24 24 24 24 23 22 21 20 19 18 17 16 16 15 15 14 14 14 13 13 13 13 12 12 12 12 12 12 12
27 26 26 25 25 26 26 26 26 25 25 24 24 24 25 24 24 24 24 23 22 21 20 19 18 17 16 16 15 15 15 14 14 13 13 13 13 12 12 12 12 12 12 12
27 27 26 26 27 27 26 26 26 24 25 25 24 23 25 24 24 24 24 23 22 20 19 19 18 17 16 16 15 15 15 14 14 13 13 13 13 13 12 12 12 12 12 12
27 26 26 25 25 25 25 25 25 25 24 24 24 23 25 25 25 24 23 23 22 20 19 19 18 17 17 16 16 15 15 14 14 13 13 13 13 12 12 12 12 12 12 12
25 26 26 25 25 26 25 25 25 24 23 24 25 25 25 25 25 24 23 22 22 21 20 19 18 17 17 16 16 15 15 14 14 13 13 13 13 12 12 12 12 12 12 12
26 25 26 27 27 26 26 26 25 24 24 24 25 25 25 25 24 24 23 22 22 21 20 19 18 18 17 17 16 16 15 14 14 14 13 13 13 12 12 12 12 12 12 12
25 25 26 26 27 26 25 26 25 25 25 25 25 25 26 25 25 24 24 23 22 21 20 20 19 18 18 17 17 16 15 15 14 14 13 13 13 12 12 12 12 12 12 12
26 25 25 25 26 26 25 26 25 25 26 25 24 25 26 25 25 24 23 23 22 21 20 20 19 19 18 18 17 16 16 15 15 14 14 13 13 12 12 12 12 12 12 12
26 26 25 25 25 24 26 27 27 26 26 26 26 26 26 25 24 23 23 22 22 21 20 20 19 19 18 18 17 16 16 15 15 14 14 13 13 13 12 12 12 12 12 12
26 25 25 25 25 26 26 26 26 26 25 27 26 26 25 25 24 23 23 22 21 21 20 19 19 18 18 18 17 17 16 16 15 15 14 14 13 13 13 12 12 12 12 12
25 25 24 24 24 24 26 27 27 26 25 26 26 26 25 25 23 22 22 21 21 20 19 19 18 18 18 18 17 17 16 16 16 15 14 14 14 13 13 13 13 12 12 12
23 23 23 23 24 26 26 26 26 24 24 26 26 25 25 24 23 22 21 21 20 19 19 18 18 18 18 17 17 16 16 16 16 15 15 14 14 14 13 13 13 13 13 12
25 24 24 24 23 24 25 25 25 25 25 25 25 24 24 23 22 22 21 20 20 19 18 18 18 17 17 17 17 16 16 16 15 15 15 14 14 14 13 13 13 13 13 13
26 26 26 25 24 25 25 25 24 24 25 24 24 23 23 22 22 21 21 20 19 19 18 18 17 17 17 17 16 16 16 16 15 15 15 15 14 14 14 14 13 13 13 13
27 28 26 26 25 24 24 24 23 23 23 23 23 22 22 22 21 21 20 20 19 18 18 18 17 17 17 17 16 16 16 16 15 15 15 15 15 14 14 14 14 14 14 13
26 27 26 25 25 24 23 23 23 22 22 22 22 21 21 21 21 20 20 19 18 18 18 17 17 17 16 16 16 16 16 15 15 15 15 15 15 15 15 14 14 14 14 14
26 26 25 25 26 25 24 23 22 21 21 21 21 20 20 20 20 19 19 18 18 17 17 17 16 16 16 16 16 16 16 15 15 15 15 15 15 15 15 14 14 14 14 14

GEFSCGP_850_meantemp_096.txt.gz
Temperature
23 20 20 20 20 21 20 20 20 21 22 21 20 20 19 20 21 20 20 20 20 19 19 18 18 17 17 16 16 15 15 14 14 14 14 14 14 14 13 13 13 13 13 13
20 20 21 21 22 21 21 21 21 21 22 21 20 20 20 20 20 21 21 20 20 19 18 18 17 17 17 16 16 15 15 14 14 14 14 13 13 13 13 13 13 13 13 13
20 21 23 22 22 21 21 20 21 22 22 22 21 20 19 20 20 21 21 21 20 19 19 18 17 17 16 16 15 15 14 14 14 13 13 13 13 13 13 13 13 13 13 13
21 22 23 22 21 21 21 22 22 22 21 19 21 19 19 19 19 19 20 20 20 19 19 18 18 17 16 16 15 15 14 14 13 13 13 13 13 13 13 13 13 13 13 13
21 21 22 22 22 22 21 23 23 22 21 19 19 18 18 19 19 19 19 20 20 19 19 18 18 17 16 16 15 15 14 14 13 13 13 13 13 13 12 12 12 13 13 13
21 22 22 22 23 23 22 21 20 17 17 19 20 18 19 17 19 19 19 19 19 19 19 18 17 17 16 16 15 14 14 14 13 13 13 13 13 13 12 12 12 12 12 12
21 22 23 23 22 22 21 18 18 19 17 18 19 19 18 19 19 19 19 19 19 19 19 18 17 17 16 16 15 14 14 14 13 13 13 13 13 12 12 12 12 12 12 12
20 20 22 23 22 22 21 18 18 19 18 18 19 19 18 20 20 21 21 20 20 19 19 18 18 17 16 16 15 15 14 14 13 13 13 13 13 12 12 12 12 12 12 12
20 21 23 24 24 23 22 19 18 17 19 18 18 19 20 20 19 19 19 20 19 19 19 18 18 17 16 16 15 15 14 14 13 13 13 13 13 12 12 12 12 12 12 12
20 21 23 24 24 23 22 19 17 18 18 18 19 19 17 19 18 18 18 19 19 19 19 18 18 17 16 16 15 15 14 14 14 13 13 13 13 12 12 12 12 12 12 12
20 20 21 22 23 22 22 22 18 15 16 17 18 18 18 18 18 18 18 20 20 19 19 18 18 17 16 16 15 15 14 14 14 13 13 13 13 13 12 12 12 12 12 12
20 18 19 21 21 22 22 21 18 18 18 16 16 17 19 18 19 19 20 21 20 20 19 18 18 17 16 16 16 15 15 14 14 14 13 13 13 13 12 12 12 12 12 12
20 18 18 19 20 21 22 21 19 16 16 15 16 18 19 19 19 20 21 21 20 20 19 18 18 17 17 16 16 15 15 14 14 14 13 13 13 13 12 12 12 12 12 12
20 18 18 20 20 20 21 22 20 17 16 17 17 19 20 19 19 19 20 21 20 20 19 19 18 17 17 16 16 15 15 14 14 14 13 13 13 13 13 12 12 12 12 12
19 19 20 20 20 21 21 21 21 19 17 17 19 19 20 19 18 20 21 21 20 20 19 19 18 18 17 17 16 16 15 15 14 14 14 13 13 13 13 13 12 12 12 12
18 20 21 21 21 21 21 21 20 20 20 19 19 20 20 20 21 21 21 20 20 20 20 19 19 18 18 17 16 16 15 15 15 14 14 14 13 13 13 13 13 12 12 12
18 19 19 18 20 21 20 20 20 20 20 20 19 19 20 19 19 20 21 21 21 20 20 19 19 18 18 17 17 16 16 15 15 15 14 14 14 13 13 13 13 13 12 12
18 17 16 17 20 20 19 20 21 21 21 20 20 20 19 20 22 22 22 22 21 21 20 20 19 18 18 17 17 17 16 16 15 15 15 14 14 14 13 13 13 13 13 13
17 17 16 16 18 18 20 22 21 21 21 20 20 20 21 22 21 20 22 22 21 21 20 19 19 18 18 17 17 17 16 16 15 15 15 14 14 14 14 14 13 13 13 13
17 16 16 16 19 19 20 21 23 22 21 21 20 20 20 20 17 18 21 21 21 20 20 19 19 18 18 17 17 17 16 16 16 15 15 15 14 14 14 14 14 13 13 13
18 17 16 16 17 17 19 21 22 20 20 22 22 22 21 20 20 22 21 21 20 20 19 19 18 18 18 17 17 17 16 16 16 15 15 15 15 14 14 14 14 14 13 13
17 16 15 14 16 18 20 22 20 20 22 23 23 23 23 23 22 21 21 20 20 19 19 18 18 18 17 17 17 16 16 16 16 15 15 15 15 15 14 14 14 14 14 14
16 17 16 16 18 20 22 23 24 24 24 24 24 23 23 22 22 21 21 20 20 19 19 18 18 17 17 17 17 16 16 16 16 15 15 15 15 15 14 14 14 14 14 14
17 17 17 17 17 20 22 24 24 24 24 24 24 23 23 22 22 21 20 20 19 19 18 18 17 17 17 17 16 16 16 16 15 15 15 15 15 15 14 14 14 14 14 14
18 18 17 17 18 20 22 23 24 24 24 24 23 23 23 22 21 21 20 20 19 19 18 18 17 17 17 16 16 16 16 15 15 15 15 15 14 14 14 14 14 14 14 13
17 18 17 17 20 18 22 24 24 23 23 23 23 22 22 22 21 21 20 20 19 19 18 18 17 17 16 16 16 15 15 15 15 15 14 14 14 14 14 14 14 13 13 13

GEFSCGP_850_meantemp_102.txt.gz
Temperature
19 18 17 18 18 20 20 19 20 20 20 19 18 18 19 19 18 18 18 19 19 19 19 18 18 17 17 16 16 15 15 14 14 14 13 13 13 13 13 13 13 13 13 13
18 18 19 19 19 20 20 20 19 20 20 19 18 18 18 18 18 18 18 19 19 19 18 18 18 17 17 16 15 15 14 14 14 13 13 13 13 13 13 13 13 13 12 12
19 19 20 20 19 19 19 19 20 20 20 19 19 18 18 18 18 18 19 19 19 19 19 18 18 17 16 16 15 15 14 14 13 13 13 13 13 13 13 13 13 12 12 12
19 20 20 20 20 20 20 20 20 20 19 18 19 17 18 17 17 17 18 18 19 19 19 18 18 17 16 16 15 15 14 14 13 13 13 13 13 12 12 12 12 12 12 12
19 19 20 20 20 20 20 20 19 19 18 17 17 17 17 17 18 17 17 18 19 19 19 18 18 17 16 16 15 14 14 14 13 13 13 13 12 12 12 12 12 12 12 12
19 20 20 20 20 20 19 18 17 15 16 17 18 17 17 16 17 18 17 18 19 19 19 18 17 17 16 15 15 14 14 14 13 13 13 13 12 12 12 12 12 12 12 12
20 20 20 20 20 20 19 18 17 18 16 17 17 17 16 17 17 17 18 19 19 19 19 18 17 17 16 15 15 14 14 14 13 13 13 13 12 12 12 12 12 12 12 12
20 20 21 21 20 20 19 18 18 18 17 16 17 17 17 18 18 19 19 19 19 19 19 18 18 17 16 16 15 14 14 14 13 13 13 13 12 12 12 12 12 12 12 12
19 20 21 21 20 19 18 17 17 16 17 16 16 16 17 19 18 18 18 18 19 19 19 18 18 17 16 16 15 14 14 14 13 13 13 13 12 12 12 12 12 12 12 12
19 20 20 21 20 19 18 15 15 16 17 17 17 17 17 19 18 17 17 18 19 20 19 18 18 17 16 16 15 14 14 14 13 13 13 13 12 12 12 12 12 12 12 12
19 19 20 20 21 20 18 17 15 13 15 15 16 17 17 17 18 17 17 19 20 20 19 19 18 17 16 16 15 15 14 14 13 13 13 13 13 12 12 12 12 12 12 12
18 17 18 19 20 20 20 18 15 17 16 14 15 16 17 17 17 17 19 20 20 20 20 19 18 17 17 16 15 15 14 14 13 13 13 13 13 13 12 12 12 12 12 12
17 17 18 19 19 20 20 18 16 14 13 12 14 17 17 17 17 18 19 20 21 20 20 19 18 17 17 16 16 15 14 14 14 13 13 13 13 13 12 12 12 12 12 12
17 17 18 19 19 19 20 18 16 15 15 14 14 16 18 18 18 18 19 20 21 20 20 19 18 18 17 16 16 15 15 14 14 13 13 13 13 13 13 12 12 12 12 12
18 18 18 18 19 19 19 19 17 16 16 16 16 16 17 17 17 19 20 20 20 20 20 19 19 18 17 17 16 16 15 15 14 14 13 13 13 13 13 13 13 12 12 12
16 18 19 19 19 18 18 18 17 17 17 16 17 17 17 18 19 19 20 20 20 20 20 20 19 18 18 17 16 16 15 15 14 14 14 14 13 13 13 13 13 13 13 12
15 17 17 17 17 19 18 18 18 17 17 17 17 18 18 18 17 19 21 21 21 21 21 20 19 19 18 17 17 16 16 15 15 14 14 14 14 13 13 13 13 13 13 13
15 15 14 15 18 19 18 18 18 18 18 17 17 18 17 18 21 22 22 22 22 21 21 20 19 19 18 17 17 16 16 15 15 15 14 14 14 14 14 13 13 13 13 13
14 14 13 14 17 17 18 19 18 18 19 18 17 18 18 19 19 20 22 22 22 22 21 20 20 19 18 17 17 16 16 16 15 15 15 14 14 14 14 14 13 13 13 13
13 13 13 13 17 17 18 20 20 19 19 19 18 17 18 17 17 19 23 22 22 21 21 20 19 19 18 17 17 16 16 16 16 15 15 15 14 14 14 14 14 13 13 13
15 14 14 14 15 16 17 18 19 20 19 21 21 20 19 18 20 23 23 22 22 21 20 20 19 18 18 17 17 16 16 16 16 15 15 15 14 14 14 14 14 14 13 13
15 14 13 12 15 16 18 18 18 19 21 22 22 22 21 22 22 22 22 22 21 21 20 19 19 18 18 17 17 17 16 16 16 15 15 15 15 14 14 14 14 14 14 13
14 14 13 14 16 18 19 20 21 21 21 22 23 23 23 22 22 22 22 21 21 20 20 19 18 18 18 17 17 16 16 16 16 15 15 15 14 14 14 14 14 14 13 13
14 13 13 13 14 17 19 20 21 22 22 22 23 23 23 23 23 22 22 21 21 20 19 19 18 18 17 17 17 16 16 16 15 15 15 14 14 14 14 14 14 13 13 13
14 13 13 14 14 17 21 22 22 21 22 22 22 23 23 23 22 22 22 21 20 20 19 19 18 18 17 17 16 16 16 15 15 15 15 14 14 14 14 13 13 13 13 13
13 14 14 15 17 16 19 21 20 21 21 22 22 22 22 22 22 22 22 21 20 20 19 18 18 17 17 17 16 16 15 15 15 15 14 14 14 13 13 13 13 12 12 12

GEFSCGP_850_meantemp_108.txt.gz
Temperature
22 23 23 24 25 25 25 24 25 25 25 24 25 25 26 25 24 24 23 23 23 22 21 19 18 18 17 17 16 16 15 15 14 14 14 13 13 13 13 13 13 12 12 12
22 23 24 25 24 24 24 24 25 25 24 24 25 25 26 25 24 24 24 24 23 22 21 19 18 17 17 17 16 16 15 14 14 14 13 13 13 13 12 12 12 12 12 12
23 24 24 24 24 24 24 24 25 24 24 24 24 25 26 25 24 23 22 22 23 22 21 20 18 18 17 16 16 15 15 14 14 13 13 13 13 13 13 12 12 12 12 12
24 24 24 24 24 24 24 24 24 24 24 25 24 24 26 26 25 24 23 22 22 21 20 19 18 18 17 16 16 15 15 14 14 13 13 13 13 13 12 12 12 12 12 12
24 24 24 24 24 24 24 23 24 24 24 25 25 25 26 25 25 25 24 23 22 21 20 19 18 18 17 16 16 15 15 14 13 13 13 13 13 12 12 12 12 12 12 12
23 23 24 24 24 24 23 23 23 24 25 24 25 25 25 26 26 25 24 23 21 20 20 19 18 17 17 16 16 15 14 14 13 13 13 13 12 12 12 12 12 12 12 12
23 23 23 23 23 23 24 24 24 24 24 24 24 24 25 26 25 25 24 23 22 21 20 19 18 17 17 16 16 15 14 14 13 13 13 13 12 12 12 12 12 12 12 12
24 23 24 24 25 24 25 25 24 23 24 24 24 24 26 25 24 23 22 22 21 21 20 19 18 18 17 16 16 15 14 14 13 13 13 13 12 12 12 12 12 12 12 12
25 24 24 24 24 25 24 25 25 25 24 24 25 25 26 25 24 23 23 22 22 21 20 19 18 17 17 16 16 15 14 14 13 13 13 13 13 12 12 12 12 12 12 12
25 24 24 23 24 23 25 25 24 24 23 24 24 25 25 25 25 25 24 23 22 21 20 19 18 18 17 16 16 15 14 14 14 13 13 13 12 12 12 12 12 12 12 12
25 25 24 24 24 25 24 24 24 24 24 24 24 25 26 26 25 25 25 23 22 21 20 19 18 18 17 16 16 15 15 14 14 13 13 13 12 12 12 12 12 12 12 12
24 25 25 25 24 24 25 25 25 24 24 24 24 25 26 25 25 24 24 23 22 21 20 19 19 18 17 17 16 15 15 14 14 13 13 13 13 12 12 12 12 12 12 12
24 25 24 24 24 23 24 24 24 24 24 24 23 25 26 25 25 24 23 23 22 21 20 19 19 18 18 17 16 16 15 15 14 14 13 13 13 13 13 12 12 12 12 12
23 25 25 24 24 25 24 23 23 24 24 24 24 25 26 26 25 25 24 23 22 21 20 20 19 18 18 17 17 16 15 15 14 14 13 13 13 13 13 12 12 12 12 12
24 25 25 25 24 24 24 24 23 23 24 24 25 25 26 26 26 25 24 23 22 21 20 20 19 19 18 18 17 16 16 15 15 14 14 13 13 13 13 13 12 12 13 12
24 24 24 24 24 23 23 24 24 23 24 24 24 24 26 26 25 24 24 23 22 21 21 20 19 19 18 18 17 17 16 15 15 15 14 14 13 13 13 13 13 13 13 12
24 24 24 24 24 23 24 25 24 24 24 24 24 25 26 25 25 24 24 23 22 21 21 20 20 19 19 19 18 17 16 16 15 15 14 14 14 13 13 13 13 13 13 13
24 24 24 24 24 22 25 25 24 24 24 25 24 25 25 25 24 23 23 22 22 21 21 20 20 19 19 18 18 17 16 16 15 15 14 14 14 13 13 13 13 13 13 13
22 23 23 23 23 23 24 24 24 24 24 25 25 25 24 23 23 24 23 22 22 21 21 21 20 20 19 18 18 17 17 16 15 15 15 14 14 14 14 13 13 13 13 13
20 21 23 22 22 22 24 24 23 24 24 25 24 24 23 23 24 26 23 22 21 21 21 21 20 20 19 18 18 17 17 16 16 15 15 15 14 14 14 14 13 13 13 13
21 21 21 22 22 23 24 22 22 23 24 23 23 23 22 23 24 23 22 21 21 21 21 21 20 20 19 18 18 17 17 16 16 15 15 15 15 14 14 14 14 14 13 13
23 22 22 22 22 23 23 22 23 24 23 22 22 22 21 21 21 21 21 21 21 21 21 21 20 19 19 18 18 17 17 16 16 16 15 15 15 15 14 14 14 14 13 13
22 23 23 23 23 22 21 21 21 21 21 21 21 20 20 20 20 20 20 20 21 21 21 21 20 19 19 18 18 17 17 16 16 16 15 15 15 14 14 14 14 13 13 13
21 20 20 21 22 22 20 20 19 19 19 19 19 19 19 20 20 20 20 20 20 20 20 20 20 19 19 18 18 17 17 16 16 15 15 15 14 14 14 14 13 13 13 13
20 19 20 20 22 21 20 19 19 18 19 19 19 19 19 19 19 20 20 20 20 20 20 20 19 19 19 18 18 17 17 16 16 15 15 14 14 14 14 13 13 13 13 13
19 19 19 20 20 20 20 18 17 17 17 18 18 18 18 18 19 19 19 19 19 19 19 19 19 19 18 18 18 17 17 16 15 15 15 14 14 14 13 13 13 13 12 12

GEFSCGP_850_meantemp_114.txt.gz
Temperature
23 23 22 23 23 24 24 24 23 24 25 26 26 26 26 26 26 26 26 26 25 25 24 23 22 21 20 20 19 19 18 17 17 16 16 15 15 15 15 14 14 14 13 13
23 23 24 25 24 24 23 23 24 24 26 26 26 26 27 27 27 26 26 26 26 25 24 22 22 21 20 20 19 18 18 17 16 16 15 15 15 15 14 14 14 14 13 13
24 24 25 24 24 24 23 24 24 24 25 27 26 26 26 27 27 27 26 26 26 25 24 22 22 21 20 19 19 18 17 17 16 16 15 15 15 15 14 14 14 13 13 13
23 24 25 24 24 24 23 24 25 25 25 25 26 25 26 27 26 26 26 26 25 25 24 23 22 21 20 19 18 18 17 17 16 16 15 15 14 14 14 14 14 13 13 13
22 24 24 24 24 25 24 25 26 26 25 25 26 26 26 26 26 26 26 26 25 25 24 23 22 21 20 19 18 18 17 16 16 15 15 15 14 14 14 14 14 13 13 13
24 25 25 25 26 26 26 26 26 26 25 24 26 25 25 26 26 26 26 26 25 25 24 23 22 21 20 19 18 17 17 16 16 15 15 15 14 14 14 14 14 14 13 13
24 25 26 26 26 26 26 25 24 24 23 24 26 26 26 26 27 27 27 26 25 24 23 22 21 20 19 19 18 17 17 16 16 15 15 15 15 14 14 14 14 14 13 13
24 24 26 27 26 26 26 26 23 22 23 25 26 26 26 27 27 27 27 26 25 24 23 22 21 20 19 18 18 17 16 16 15 15 15 15 15 14 14 14 14 14 14 13
25 25 27 27 28 27 26 26 26 25 25 25 26 27 27 27 27 27 26 26 25 24 23 22 21 20 19 18 18 17 16 16 16 15 15 15 15 14 14 14 14 14 14 14
26 25 26 27 27 27 27 27 26 25 24 24 25 26 25 26 26 26 26 26 25 24 23 22 21 20 19 18 18 17 17 16 16 15 15 15 15 14 14 14 14 14 14 14
27 26 26 26 26 26 27 26 26 26 25 24 24 25 27 27 27 27 26 26 25 24 24 23 21 20 19 19 18 17 17 16 16 15 15 15 15 14 14 14 14 14 14 14
27 26 25 26 28 28 27 27 26 25 25 25 24 25 28 27 27 27 27 26 25 24 24 22 21 21 20 19 18 17 17 16 16 16 15 15 15 15 14 14 14 14 14 14
26 26 25 25 26 26 26 27 27 26 25 25 24 25 27 27 27 27 27 26 25 24 23 22 21 21 20 19 18 18 17 17 16 16 15 15 15 15 14 14 14 14 14 14
25 26 25 24 25 26 26 26 26 26 24 25 25 26 27 27 27 27 27 26 25 24 24 23 22 21 20 19 19 18 18 17 16 16 15 15 15 15 14 14 14 14 14 14
26 25 26 26 27 27 26 26 26 26 26 25 25 26 26 27 27 27 27 26 25 25 24 23 22 21 20 19 19 18 18 17 17 16 16 16 15 15 15 14 14 14 14 14
26 26 26 26 27 27 26 27 26 26 26 26 26 26 27 27 27 27 26 26 25 24 24 23 22 21 20 20 19 19 18 18 17 16 16 16 15 15 15 14 14 14 14 14
26 25 25 25 26 26 25 27 27 26 27 26 25 26 27 27 26 26 26 25 25 24 24 23 22 22 21 20 19 19 18 18 17 17 16 16 15 15 15 14 14 14 14 14
25 25 25 24 25 24 26 28 27 26 26 27 26 26 26 26 26 26 25 25 25 24 23 23 22 22 21 21 20 19 19 18 17 17 17 16 15 15 15 14 14 14 14 14
26 25 24 24 24 25 26 27 27 26 25 26 26 26 26 26 26 25 25 24 24 24 23 23 22 22 22 21 21 20 19 18 18 17 17 16 16 15 15 15 14 14 14 14
25 25 24 23 23 23 25 26 26 26 24 26 26 25 25 25 23 24 24 24 23 23 23 22 22 22 22 21 21 20 19 19 18 17 17 16 16 15 15 15 15 14 14 14
24 24 23 23 23 24 25 25 26 24 23 25 25 24 24 24 23 23 23 23 23 22 22 22 21 21 21 21 20 20 19 19 18 18 17 16 16 16 15 15 15 14 14 14
24 24 23 23 23 23 24 25 24 23 24 24 23 23 23 23 22 22 22 22 22 22 21 21 21 21 21 20 20 20 19 19 18 18 17 16 16 16 15 15 15 14 14 14
24 24 23 24 23 23 23 23 22 22 22 22 22 21 21 21 22 22 21 21 21 21 21 21 20 20 20 20 20 19 19 19 18 18 17 16 16 16 15 15 15 14 14 14
23 24 23 23 23 23 22 22 21 21 21 20 20 20 20 20 20 21 21 21 20 20 20 20 19 19 19 19 19 19 19 19 18 17 17 16 16 15 15 15 15 14 14 14
21 22 21 21 22 22 22 21 20 20 19 19 19 19 19 19 19 20 20 20 20 20 19 19 19 19 19 19 19 18 18 18 18 17 17 16 16 15 15 15 14 14 14 14
20 20 20 20 21 21 20 19 19 18 18 18 18 18 18 18 18 18 19 19 19 19 19 19 18 18 18 18 18 18 18 18 17 17 16 16 16 15 15 15 14 14 14 14

GEFSCGP_850_meantemp_120.txt.gz
Temperature
19 17 17 17 18 19 19 19 19 20 21 21 20 20 21 22 22 21 22 22 22 22 22 21 21 21 20 20 19 19 18 18 17 16 16 15 15 15 14 14 14 14 14 14
18 18 19 19 19 19 19 19 19 20 21 21 20 20 21 21 21 22 22 22 22 21 21 21 21 21 20 20 19 19 18 17 17 16 16 15 15 14 14 14 14 14 14 13
18 19 20 20 19 19 19 19 19 20 21 21 21 20 20 21 21 22 22 22 22 22 21 21 21 20 20 20 19 19 18 17 17 16 16 15 15 14 14 14 14 14 13 13
19 20 20 20 20 20 19 20 21 21 19 19 20 19 20 20 20 21 21 22 22 22 22 21 21 20 20 20 19 19 18 17 17 16 16 15 15 14 14 14 14 13 13 13
19 20 20 20 21 21 20 21 21 20 19 19 19 19 19 20 20 21 20 21 22 22 22 21 21 21 20 20 19 18 18 17 17 16 16 15 15 14 14 14 14 13 13 13
20 21 21 21 22 22 21 20 19 18 17 18 20 19 20 19 21 21 21 22 22 22 22 22 21 20 20 19 19 18 18 17 17 16 15 15 15 14 14 14 14 14 13 13
21 21 22 22 21 22 20 18 18 18 17 18 19 19 19 21 21 21 21 22 22 22 22 21 21 20 20 19 19 18 18 17 16 16 15 15 15 14 14 14 14 14 14 13
20 20 22 22 22 21 20 19 18 19 18 18 19 20 20 22 22 23 23 23 23 22 22 22 21 21 20 20 19 18 18 17 16 16 15 15 15 14 14 14 14 14 14 13
20 20 23 23 23 22 21 19 19 18 19 18 19 20 22 22 22 21 22 22 22 22 22 22 22 21 20 20 19 19 18 17 16 16 15 15 15 14 14 14 14 14 14 13
21 21 23 24 24 23 22 20 17 18 18 18 19 20 19 21 21 21 20 21 22 22 22 22 22 21 21 20 19 19 18 17 17 16 16 15 15 14 14 14 14 14 14 14
21 21 22 22 23 22 22 22 19 17 17 18 19 19 20 21 21 21 21 22 23 23 22 22 22 21 21 20 19 19 18 17 17 16 16 15 15 14 14 14 14 14 14 14
20 18 19 21 22 23 23 22 19 19 19 17 17 18 21 21 21 21 22 23 23 23 23 22 22 21 21 20 19 19 18 18 17 16 16 15 15 15 14 14 14 14 14 14
20 19 19 19 20 22 23 23 20 18 17 17 18 19 21 20 21 22 23 23 23 23 23 22 22 21 21 20 20 19 18 18 17 17 16 16 15 15 15 14 14 14 14 14
20 18 19 20 20 21 22 23 22 19 18 18 19 20 21 21 21 21 22 23 23 22 22 22 21 21 21 20 20 19 19 18 17 17 16 16 15 15 15 14 14 14 14 14
19 19 20 20 21 22 22 22 22 21 19 19 20 20 20 20 20 21 22 22 22 22 22 21 21 21 21 20 20 19 19 18 18 17 17 16 16 15 15 15 14 14 14 14
18 20 20 20 21 21 22 22 21 21 21 20 20 20 20 20 21 21 21 21 21 22 22 22 21 21 21 20 20 19 19 18 18 17 17 16 16 15 15 15 15 14 14 14
17 18 19 18 19 21 20 21 21 21 21 21 20 19 19 20 20 20 21 21 21 21 22 22 22 21 21 21 20 20 19 19 18 18 17 17 16 16 15 15 15 14 14 14
18 17 16 17 19 20 20 20 21 21 20 20 19 19 19 20 21 22 21 21 21 21 21 22 22 22 21 21 20 20 19 19 18 18 17 17 16 16 16 15 15 14 14 14
17 17 16 16 18 18 20 21 21 20 19 19 19 19 19 20 20 20 21 21 21 21 21 22 22 21 21 21 20 20 19 19 18 18 18 17 17 16 16 15 15 15 14 14
16 16 16 16 18 18 19 20 21 19 18 18 18 18 19 19 16 17 20 21 21 21 21 21 21 21 21 21 20 20 19 19 18 18 18 18 17 17 16 16 15 15 15 14
17 16 16 16 17 17 18 19 19 18 17 18 19 19 19 17 17 19 20 20 20 20 20 20 20 20 20 20 20 19 19 19 19 18 18 18 17 17 16 16 16 15 15 14
16 16 15 14 16 16 17 18 17 17 18 18 18 19 19 19 19 19 19 19 19 19 20 20 20 20 19 19 19 19 19 19 18 18 18 17 17 17 16 16 16 15 15 14
15 15 14 14 15 16 17 18 18 18 18 18 18 18 18 18 18 18 18 18 18 18 19 19 19 19 19 19 18 18 18 18 18 18 18 17 17 17 16 16 16 15 15 14
14 15 14 14 15 16 17 17 18 18 18 17 17 17 17 17 17 17 17 17 18 18 18 18 18 18 18 18 18 18 18 18 18 17 17 17 17 17 16 16 16 15 15 15
14 14 14 14 14 15 16 16 16 17 17 17 17 16 16 16 16 16 16 16 16 17 17 17 17 17 17 17 17 17 17 17 17 17 17 17 17 16 16 16 16 15 15 15
12 13 13 13 14 14 15 16 16 16 16 16 16 16 15 15 15 15 15 15 15 16 16 16 16 16 16 17 17 17 17 16 16 16 16 16 16 16 16 16 15 15 15 15